Time,TemperatureF,DewpointF,PressureIn,WindDirection,WindDirectionDegrees,WindSpeedMPH,WindSpeedGustMPH,Humidity,HourlyPrecipIn,Conditions,Clouds,dailyrainin,SoftwareType,DateUTC
2013-07-31 00:02:00,74.5,58.2,30.12,South,180,9.2,15.0,57,0.00,,,0.00,WUHU216HW,2013-07-31 07:02:00,
2013-07-31 00:03:00,74.5,58.2,30.12,South,180,4.7,11.6,57,0.00,,,0.00,WUHU216HW,2013-07-31 07:03:00,
2013-07-31 00:04:00,74.5,58.2,30.12,SSW,203,4.7,11.6,57,0.00,,,0.00,WUHU216HW,2013-07-31 07:04:00,
2013-07-31 00:07:00,74.5,57.8,30.11,South,180,4.9,9.2,56,0.00,,,0.00,WUHU216HW,2013-07-31 07:07:00,
2013-07-31 00:08:00,74.5,57.8,30.11,South,180,5.4,9.2,56,0.00,,,0.00,WUHU216HW,2013-07-31 07:08:00,
2013-07-31 00:09:00,74.5,57.8,30.11,SSE,158,4.0,9.2,56,0.00,,,0.00,WUHU216HW,2013-07-31 07:09:00,
2013-07-31 00:10:00,74.5,57.8,30.11,South,180,3.4,9.2,56,0.00,,,0.00,WUHU216HW,2013-07-31 07:10:00,
2013-07-31 00:12:00,74.5,57.8,30.11,South,180,3.6,7.4,56,0.00,,,0.00,WUHU216HW,2013-07-31 07:12:00,
2013-07-31 00:13:00,74.5,57.8,30.11,SSE,158,4.9,6.3,56,0.00,,,0.00,WUHU216HW,2013-07-31 07:13:00,
2013-07-31 00:14:00,74.5,57.8,30.11,SSE,158,3.4,6.3,56,0.00,,,0.00,WUHU216HW,2013-07-31 07:14:00,
2013-07-31 00:15:00,74.5,57.2,30.11,SSE,158,3.1,6.3,55,0.00,,,0.00,WUHU216HW,2013-07-31 07:15:00,
2013-07-31 00:18:00,74.7,57.4,30.11,SSE,158,4.7,5.4,55,0.00,,,0.00,WUHU216HW,2013-07-31 07:18:00,
2013-07-31 00:19:00,74.7,57.4,30.11,SSW,203,3.6,6.7,55,0.00,,,0.00,WUHU216HW,2013-07-31 07:19:00,
2013-07-31 00:20:00,74.7,57.4,30.11,SSW,203,3.4,6.7,55,0.00,,,0.00,WUHU216HW,2013-07-31 07:20:00,
2013-07-31 00:23:00,74.7,56.9,30.11,SSW,203,3.6,6.7,54,0.00,,,0.00,WUHU216HW,2013-07-31 07:23:00,
2013-07-31 00:24:00,74.7,56.9,30.11,SSW,203,3.8,6.7,54,0.00,,,0.00,WUHU216HW,2013-07-31 07:24:00,
2013-07-31 00:25:00,74.7,56.9,30.11,SSW,203,3.8,6.7,54,0.00,,,0.00,WUHU216HW,2013-07-31 07:25:00,
2013-07-31 00:26:00,74.7,56.9,30.11,SSW,203,3.1,6.7,54,0.00,,,0.00,WUHU216HW,2013-07-31 07:26:00,
2013-07-31 00:28:00,74.9,57.1,30.11,SSW,203,2.5,6.7,54,0.00,,,0.00,WUHU216HW,2013-07-31 07:28:00,
2013-07-31 00:29:00,74.9,56.6,30.11,South,180,2.7,5.1,53,0.00,,,0.00,WUHU216HW,2013-07-31 07:29:00,
2013-07-31 00:30:00,74.9,56.6,30.11,South,180,2.7,5.1,53,0.00,,,0.00,WUHU216HW,2013-07-31 07:30:00,
2013-07-31 00:31:00,74.9,56.6,30.11,South,180,2.2,4.7,53,0.00,,,0.00,WUHU216HW,2013-07-31 07:31:00,
2013-07-31 00:33:00,74.7,56.4,30.11,South,180,2.0,4.7,53,0.00,,,0.00,WUHU216HW,2013-07-31 07:33:00,
2013-07-31 00:34:00,74.7,56.4,30.11,SSW,203,1.8,4.5,53,0.00,,,0.00,WUHU216HW,2013-07-31 07:34:00,
2013-07-31 00:35:00,74.7,56.4,30.11,SSW,203,2.0,4.3,53,0.00,,,0.00,WUHU216HW,2013-07-31 07:35:00,
2013-07-31 00:36:00,74.7,56.4,30.11,SSW,203,1.8,3.4,53,0.00,,,0.00,WUHU216HW,2013-07-31 07:36:00,
2013-07-31 00:38:00,74.7,56.4,30.11,SSW,203,2.9,2.9,53,0.00,,,0.00,WUHU216HW,2013-07-31 07:38:00,
2013-07-31 00:40:00,74.7,56.4,30.11,SSW,203,3.8,3.8,53,0.00,,,0.00,WUHU216HW,2013-07-31 07:40:00,
2013-07-31 00:42:00,74.7,56.4,30.10,SSW,203,3.4,3.8,53,0.00,,,0.00,WUHU216HW,2013-07-31 07:42:00,
2013-07-31 00:43:00,74.7,56.9,30.10,SSW,203,3.1,3.8,54,0.00,,,0.00,WUHU216HW,2013-07-31 07:43:00,
2013-07-31 00:45:00,74.5,56.7,30.10,SW,225,2.0,3.8,54,0.00,,,0.00,WUHU216HW,2013-07-31 07:45:00,
2013-07-31 00:47:00,74.5,56.7,30.10,WSW,248,2.7,3.8,54,0.00,,,0.00,WUHU216HW,2013-07-31 07:47:00,
2013-07-31 00:48:00,74.5,57.2,30.10,WSW,248,3.4,3.8,55,0.00,,,0.00,WUHU216HW,2013-07-31 07:48:00,
2013-07-31 00:50:00,74.3,56.5,30.10,WSW,248,2.7,3.8,54,0.00,,,0.00,WUHU216HW,2013-07-31 07:50:00,
2013-07-31 00:52:00,74.3,57.1,30.10,WSW,248,1.8,3.8,55,0.00,,,0.00,WUHU216HW,2013-07-31 07:52:00,
2013-07-31 00:53:00,74.2,56.9,30.10,West,270,2.0,3.8,55,0.00,,,0.00,WUHU216HW,2013-07-31 07:53:00,
2013-07-31 00:54:00,74.2,56.9,30.10,West,270,2.9,3.8,55,0.00,,,0.00,WUHU216HW,2013-07-31 07:54:00,
2013-07-31 00:55:00,74.2,56.9,30.10,WSW,248,2.9,3.8,55,0.00,,,0.00,WUHU216HW,2013-07-31 07:55:00,
2013-07-31 00:56:00,74.2,56.9,30.10,WSW,248,2.5,3.8,55,0.00,,,0.00,WUHU216HW,2013-07-31 07:56:00,
2013-07-31 00:57:00,74.2,56.9,30.10,WSW,248,2.7,3.8,55,0.00,,,0.00,WUHU216HW,2013-07-31 07:57:00,
2013-07-31 00:58:00,74.2,56.9,30.10,West,270,3.8,3.8,55,0.00,,,0.00,WUHU216HW,2013-07-31 07:58:00,
2013-07-31 00:59:00,74.2,56.9,30.10,West,270,3.8,3.8,55,0.00,,,0.00,WUHU216HW,2013-07-31 07:59:00,
2013-07-31 01:00:00,74.0,56.7,30.10,West,270,3.4,3.8,55,0.00,,,0.00,WUHU216HW,2013-07-31 08:00:00,
2013-07-31 01:01:00,74.0,57.3,30.09,West,270,3.4,3.8,56,0.00,,,0.00,WUHU216HW,2013-07-31 08:01:00,
2013-07-31 01:02:00,74.0,57.3,30.09,West,270,3.4,3.8,56,0.00,,,0.00,WUHU216HW,2013-07-31 08:02:00,
2013-07-31 01:04:00,74.0,57.3,30.09,West,270,2.9,3.8,56,0.00,,,0.00,WUHU216HW,2013-07-31 08:04:00,
2013-07-31 01:06:00,73.8,57.1,30.09,WNW,293,2.5,3.8,56,0.00,,,0.00,WUHU216HW,2013-07-31 08:06:00,
2013-07-31 01:07:00,73.8,57.1,30.09,West,270,2.5,3.8,56,0.00,,,0.00,WUHU216HW,2013-07-31 08:07:00,
2013-07-31 01:09:00,73.8,57.5,30.08,West,270,2.7,3.8,57,0.00,,,0.00,WUHU216HW,2013-07-31 08:09:00,
2013-07-31 01:11:00,73.8,57.1,30.09,West,270,3.4,3.6,56,0.00,,,0.00,WUHU216HW,2013-07-31 08:11:00,
2013-07-31 01:12:00,73.8,57.1,30.09,WNW,293,3.6,3.6,56,0.00,,,0.00,WUHU216HW,2013-07-31 08:12:00,
2013-07-31 01:13:00,73.6,56.9,30.09,WSW,248,4.3,4.7,56,0.00,,,0.00,WUHU216HW,2013-07-31 08:13:00,
2013-07-31 01:14:00,73.6,56.9,30.09,West,270,4.0,4.7,56,0.00,,,0.00,WUHU216HW,2013-07-31 08:14:00,
2013-07-31 01:16:00,73.6,56.9,30.08,West,270,3.4,4.7,56,0.00,,,0.00,WUHU216HW,2013-07-31 08:16:00,
2013-07-31 01:17:00,73.6,56.9,30.08,WSW,248,4.0,4.7,56,0.00,,,0.00,WUHU216HW,2013-07-31 08:17:00,
2013-07-31 01:18:00,73.6,56.9,30.09,WSW,248,4.0,4.7,56,0.00,,,0.00,WUHU216HW,2013-07-31 08:18:00,
2013-07-31 01:20:00,73.6,56.3,30.09,West,270,4.3,4.7,55,0.00,,,0.00,WUHU216HW,2013-07-31 08:20:00,
2013-07-31 01:22:00,73.6,56.3,30.09,West,270,3.8,4.7,55,0.00,,,0.00,WUHU216HW,2013-07-31 08:22:00,
2013-07-31 01:23:00,73.6,56.3,30.08,West,270,3.4,4.5,55,0.00,,,0.00,WUHU216HW,2013-07-31 08:23:00,
2013-07-31 01:25:00,73.8,56.5,30.08,WSW,248,3.4,4.5,55,0.00,,,0.00,WUHU216HW,2013-07-31 08:25:00,
2013-07-31 01:27:00,73.8,56.5,30.08,WSW,248,3.8,4.5,55,0.00,,,0.00,WUHU216HW,2013-07-31 08:27:00,
2013-07-31 01:28:00,73.8,56.5,30.08,WSW,248,3.8,4.5,55,0.00,,,0.00,WUHU216HW,2013-07-31 08:28:00,
2013-07-31 01:29:00,73.8,56.5,30.08,WSW,248,3.8,4.5,55,0.00,,,0.00,WUHU216HW,2013-07-31 08:29:00,
2013-07-31 01:30:00,73.8,56.5,30.08,WSW,248,3.4,4.0,55,0.00,,,0.00,WUHU216HW,2013-07-31 08:30:00,
2013-07-31 01:33:00,73.8,57.1,30.08,WSW,248,4.0,4.0,56,0.00,,,0.00,WUHU216HW,2013-07-31 08:33:00,
2013-07-31 01:34:00,73.8,57.1,30.08,WSW,248,3.8,4.0,56,0.00,,,0.00,WUHU216HW,2013-07-31 08:34:00,
2013-07-31 01:35:00,73.6,56.9,30.08,WSW,248,2.9,4.0,56,0.00,,,0.00,WUHU216HW,2013-07-31 08:35:00,
2013-07-31 01:38:00,73.6,57.3,30.08,WSW,248,3.6,4.0,57,0.00,,,0.00,WUHU216HW,2013-07-31 08:38:00,
2013-07-31 01:39:00,73.6,57.3,30.08,WSW,248,4.9,4.9,57,0.00,,,0.00,WUHU216HW,2013-07-31 08:39:00,
2013-07-31 01:40:00,73.6,57.3,30.08,WSW,248,5.1,5.1,57,0.00,,,0.00,WUHU216HW,2013-07-31 08:40:00,
2013-07-31 01:43:00,73.4,57.2,30.08,WSW,248,3.4,5.1,57,0.00,,,0.00,WUHU216HW,2013-07-31 08:43:00,
2013-07-31 01:44:00,73.4,57.2,30.07,WSW,248,4.0,5.1,57,0.00,,,0.00,WUHU216HW,2013-07-31 08:44:00,
2013-07-31 01:45:00,73.4,57.2,30.08,WSW,248,4.7,5.1,57,0.00,,,0.00,WUHU216HW,2013-07-31 08:45:00,
2013-07-31 01:48:00,73.4,57.2,30.07,WSW,248,4.0,5.1,57,0.00,,,0.00,WUHU216HW,2013-07-31 08:48:00,
2013-07-31 01:49:00,73.4,57.2,30.07,WSW,248,3.4,5.1,57,0.00,,,0.00,WUHU216HW,2013-07-31 08:49:00,
2013-07-31 01:50:00,73.4,57.2,30.07,West,270,4.0,5.1,57,0.00,,,0.00,WUHU216HW,2013-07-31 08:50:00,
2013-07-31 01:54:00,73.4,57.2,30.07,West,270,2.5,5.1,57,0.00,,,0.00,WUHU216HW,2013-07-31 08:54:00,
2013-07-31 01:55:00,73.4,57.2,30.07,West,270,3.4,5.1,57,0.00,,,0.00,WUHU216HW,2013-07-31 08:55:00,
2013-07-31 01:59:00,73.3,57.5,30.07,WSW,248,3.1,4.5,58,0.00,,,0.00,WUHU216HW,2013-07-31 08:59:00,
2013-07-31 02:00:00,73.3,57.5,30.07,WSW,248,4.0,4.5,58,0.00,,,0.00,WUHU216HW,2013-07-31 09:00:00,
2013-07-31 02:01:00,73.3,57.5,30.07,WSW,248,3.4,4.5,58,0.00,,,0.00,WUHU216HW,2013-07-31 09:01:00,
2013-07-31 02:04:00,73.3,57.5,30.07,West,270,3.4,4.5,58,0.00,,,0.00,WUHU216HW,2013-07-31 09:04:00,
2013-07-31 02:05:00,73.3,57.0,30.07,WSW,248,3.4,4.5,57,0.00,,,0.00,WUHU216HW,2013-07-31 09:05:00,
2013-07-31 02:06:00,73.1,56.9,30.07,WSW,248,3.6,4.5,57,0.00,,,0.00,WUHU216HW,2013-07-31 09:06:00,
2013-07-31 02:09:00,73.1,56.9,30.07,West,270,3.8,4.7,57,0.00,,,0.00,WUHU216HW,2013-07-31 09:09:00,
2013-07-31 02:10:00,73.1,56.9,30.07,WSW,248,3.4,4.7,57,0.00,,,0.00,WUHU216HW,2013-07-31 09:10:00,
2013-07-31 02:11:00,73.1,56.9,30.07,WSW,248,3.4,4.7,57,0.00,,,0.00,WUHU216HW,2013-07-31 09:11:00,
2013-07-31 02:14:00,73.1,57.3,30.07,West,270,4.5,4.7,58,0.00,,,0.00,WUHU216HW,2013-07-31 09:14:00,
2013-07-31 02:15:00,73.1,57.3,30.07,WSW,248,4.7,4.7,58,0.00,,,0.00,WUHU216HW,2013-07-31 09:15:00,
2013-07-31 02:16:00,73.1,57.3,30.07,WSW,248,4.7,4.9,58,0.00,,,0.00,WUHU216HW,2013-07-31 09:16:00,
2013-07-31 02:19:00,73.1,57.3,30.07,SW,225,3.8,4.9,58,0.00,,,0.00,WUHU216HW,2013-07-31 09:19:00,
2013-07-31 02:20:00,73.1,57.3,30.07,WSW,248,3.4,4.9,58,0.00,,,0.00,WUHU216HW,2013-07-31 09:20:00,
2013-07-31 02:21:00,73.1,57.3,30.07,WSW,248,4.0,4.9,58,0.00,,,0.00,WUHU216HW,2013-07-31 09:21:00,
2013-07-31 02:22:00,72.9,57.2,30.07,WSW,248,4.0,4.9,58,0.00,,,0.00,WUHU216HW,2013-07-31 09:22:00,
2013-07-31 02:24:00,72.9,57.2,30.07,WSW,248,4.7,4.9,58,0.00,,,0.00,WUHU216HW,2013-07-31 09:24:00,
2013-07-31 02:25:00,72.9,56.7,30.07,West,270,4.3,4.9,57,0.00,,,0.00,WUHU216HW,2013-07-31 09:25:00,
2013-07-31 02:26:00,72.9,56.7,30.07,West,270,4.5,4.7,57,0.00,,,0.00,WUHU216HW,2013-07-31 09:26:00,
2013-07-31 02:27:00,72.9,56.7,30.07,WSW,248,3.8,4.7,57,0.00,,,0.00,WUHU216HW,2013-07-31 09:27:00,
2013-07-31 02:30:00,72.9,56.7,30.07,WSW,248,4.0,4.7,57,0.00,,,0.00,WUHU216HW,2013-07-31 09:30:00,
2013-07-31 02:32:00,72.9,56.7,30.07,East,90,1.3,4.7,57,0.00,,,0.00,WUHU216HW,2013-07-31 09:32:00,
2013-07-31 02:33:00,72.9,56.7,30.07,ESE,113,2.9,4.7,57,0.00,,,0.00,WUHU216HW,2013-07-31 09:33:00,
2013-07-31 02:35:00,72.9,57.2,30.07,East,90,3.4,4.7,58,0.00,,,0.00,WUHU216HW,2013-07-31 09:35:00,
2013-07-31 02:37:00,72.7,57.5,30.08,ESE,113,2.7,4.3,59,0.00,,,0.00,WUHU216HW,2013-07-31 09:37:00,
2013-07-31 02:38:00,72.7,57.1,30.08,ESE,113,2.2,4.3,58,0.00,,,0.00,WUHU216HW,2013-07-31 09:38:00,
2013-07-31 02:40:00,72.7,57.1,30.08,SSE,158,1.1,4.0,58,0.00,,,0.00,WUHU216HW,2013-07-31 09:40:00,
2013-07-31 02:42:00,72.7,56.5,30.08,ESE,113,2.5,4.0,57,0.00,,,0.00,WUHU216HW,2013-07-31 09:42:00,
2013-07-31 02:43:00,72.7,56.5,30.08,ESE,113,2.5,4.0,57,0.00,,,0.00,WUHU216HW,2013-07-31 09:43:00,
2013-07-31 02:44:00,72.7,57.1,30.08,ESE,113,1.8,4.0,58,0.00,,,0.00,WUHU216HW,2013-07-31 09:44:00,
2013-07-31 02:45:00,72.5,56.9,30.08,SE,135,2.5,4.0,58,0.00,,,0.00,WUHU216HW,2013-07-31 09:45:00,
2013-07-31 02:46:00,72.5,56.9,30.08,SE,135,2.5,3.4,58,0.00,,,0.00,WUHU216HW,2013-07-31 09:46:00,
2013-07-31 02:48:00,72.5,56.9,30.08,SE,135,1.3,3.4,58,0.00,,,0.00,WUHU216HW,2013-07-31 09:48:00,
2013-07-31 02:49:00,72.5,56.9,30.08,SE,135,2.5,3.4,58,0.00,,,0.00,WUHU216HW,2013-07-31 09:49:00,
2013-07-31 02:50:00,72.5,56.9,30.08,SSE,158,1.3,3.4,58,0.00,,,0.00,WUHU216HW,2013-07-31 09:50:00,
2013-07-31 02:52:00,72.4,56.2,30.08,SSE,158,0.4,3.4,57,0.00,,,0.00,WUHU216HW,2013-07-31 09:52:00,
2013-07-31 02:53:00,72.4,56.2,30.08,SSE,158,0.0,3.4,57,0.00,,,0.00,WUHU216HW,2013-07-31 09:53:00,
2013-07-31 02:54:00,72.4,56.2,30.08,SSE,158,0.0,3.4,57,0.00,,,0.00,WUHU216HW,2013-07-31 09:54:00,
2013-07-31 02:56:00,72.4,56.2,30.08,SSE,158,0.9,3.4,57,0.00,,,0.00,WUHU216HW,2013-07-31 09:56:00,
2013-07-31 02:57:00,72.4,56.2,30.08,SE,135,2.0,2.5,57,0.00,,,0.00,WUHU216HW,2013-07-31 09:57:00,
2013-07-31 02:58:00,72.4,56.2,30.08,SE,135,1.8,2.5,57,0.00,,,0.00,WUHU216HW,2013-07-31 09:58:00,
2013-07-31 02:59:00,72.5,56.3,30.08,SE,135,1.8,2.5,57,0.00,,,0.00,WUHU216HW,2013-07-31 09:59:00,
2013-07-31 03:02:00,72.4,56.2,30.08,SE,135,1.8,2.5,57,0.00,,,0.00,WUHU216HW,2013-07-31 10:02:00,
2013-07-31 03:03:00,72.4,56.2,30.08,SSE,158,2.0,2.5,57,0.00,,,0.00,WUHU216HW,2013-07-31 10:03:00,
2013-07-31 03:04:00,72.5,56.3,30.08,SSE,158,2.0,2.5,57,0.00,,,0.00,WUHU216HW,2013-07-31 10:04:00,
2013-07-31 03:07:00,72.4,56.7,30.09,SE,135,3.4,3.4,58,0.00,,,0.00,WUHU216HW,2013-07-31 10:07:00,
2013-07-31 03:09:00,72.4,56.7,30.09,SE,135,3.4,3.4,58,0.00,,,0.00,WUHU216HW,2013-07-31 10:09:00,
2013-07-31 03:12:00,72.4,57.3,30.09,ESE,113,3.6,5.4,59,0.00,,,0.00,WUHU216HW,2013-07-31 10:12:00,
2013-07-31 03:13:00,72.4,57.3,30.09,ESE,113,5.1,5.4,59,0.00,,,0.00,WUHU216HW,2013-07-31 10:13:00,
2013-07-31 03:14:00,72.4,57.7,30.09,SE,135,6.9,6.9,60,0.00,,,0.00,WUHU216HW,2013-07-31 10:14:00,
2013-07-31 03:17:00,72.4,58.1,30.08,SSE,158,3.6,8.5,61,0.00,,,0.00,WUHU216HW,2013-07-31 10:17:00,
2013-07-31 03:18:00,72.4,58.1,30.08,SSE,158,3.4,8.5,61,0.00,,,0.00,WUHU216HW,2013-07-31 10:18:00,
2013-07-31 03:19:00,72.4,58.1,30.09,South,180,4.0,8.5,61,0.00,,,0.00,WUHU216HW,2013-07-31 10:19:00,
2013-07-31 03:23:00,72.4,58.6,30.09,SE,135,4.0,8.5,62,0.00,,,0.00,WUHU216HW,2013-07-31 10:23:00,
2013-07-31 03:24:00,72.4,58.6,30.09,SE,135,4.0,8.5,62,0.00,,,0.00,WUHU216HW,2013-07-31 10:24:00,
2013-07-31 03:25:00,72.4,58.6,30.09,SSE,158,3.8,7.4,62,0.00,,,0.00,WUHU216HW,2013-07-31 10:25:00,
2013-07-31 03:28:00,72.4,59.1,30.09,South,180,6.3,7.4,63,0.00,,,0.00,WUHU216HW,2013-07-31 10:28:00,
2013-07-31 03:29:00,72.4,59.1,30.10,South,180,3.6,7.4,63,0.00,,,0.00,WUHU216HW,2013-07-31 10:29:00,
2013-07-31 03:30:00,72.2,58.9,30.09,SSE,158,4.0,7.4,63,0.00,,,0.00,WUHU216HW,2013-07-31 10:30:00,
2013-07-31 03:33:00,72.4,59.1,30.09,South,180,4.0,6.7,63,0.00,,,0.00,WUHU216HW,2013-07-31 10:33:00,
2013-07-31 03:34:00,72.4,59.1,30.09,South,180,4.0,6.7,63,0.00,,,0.00,WUHU216HW,2013-07-31 10:34:00,
2013-07-31 03:35:00,72.4,59.1,30.09,SSW,203,6.0,6.7,63,0.00,,,0.00,WUHU216HW,2013-07-31 10:35:00,
2013-07-31 03:38:00,72.4,59.5,30.09,SSE,158,6.0,6.7,64,0.00,,,0.00,WUHU216HW,2013-07-31 10:38:00,
2013-07-31 03:39:00,72.4,59.5,30.09,South,180,4.7,6.7,64,0.00,,,0.00,WUHU216HW,2013-07-31 10:39:00,
2013-07-31 03:40:00,72.4,59.5,30.09,South,180,3.4,6.7,64,0.00,,,0.00,WUHU216HW,2013-07-31 10:40:00,
2013-07-31 03:44:00,72.4,59.5,30.09,SSW,203,2.7,6.0,64,0.00,,,0.00,WUHU216HW,2013-07-31 10:44:00,
2013-07-31 03:45:00,72.4,59.5,30.09,South,180,3.4,6.0,64,0.00,,,0.00,WUHU216HW,2013-07-31 10:45:00,
2013-07-31 03:49:00,72.4,59.5,30.09,South,180,4.0,5.4,64,0.00,,,0.00,WUHU216HW,2013-07-31 10:49:00,
2013-07-31 03:50:00,72.4,59.5,30.09,SE,135,3.4,4.7,64,0.00,,,0.00,WUHU216HW,2013-07-31 10:50:00,
2013-07-31 03:51:00,72.4,59.5,30.09,SSE,158,4.0,4.7,64,0.00,,,0.00,WUHU216HW,2013-07-31 10:51:00,
2013-07-31 03:54:00,72.4,59.1,30.09,South,180,2.5,4.7,63,0.00,,,0.00,WUHU216HW,2013-07-31 10:54:00,
2013-07-31 03:55:00,72.4,59.5,30.09,South,180,3.1,4.7,64,0.00,,,0.00,WUHU216HW,2013-07-31 10:55:00,
2013-07-31 03:57:00,72.4,59.5,30.09,South,180,3.4,4.7,64,0.00,,,0.00,WUHU216HW,2013-07-31 10:57:00,
2013-07-31 03:59:00,72.4,59.5,30.09,SE,135,1.8,4.3,64,0.00,,,0.00,WUHU216HW,2013-07-31 10:59:00,
2013-07-31 04:00:00,72.4,59.5,30.09,SE,135,2.5,4.0,64,0.00,,,0.00,WUHU216HW,2013-07-31 11:00:00,
2013-07-31 04:02:00,72.4,59.5,30.09,ESE,113,2.2,3.6,64,0.00,,,0.00,WUHU216HW,2013-07-31 11:02:00,
2013-07-31 04:04:00,72.2,59.3,30.09,ESE,113,2.5,3.4,64,0.00,,,0.00,WUHU216HW,2013-07-31 11:04:00,
2013-07-31 04:05:00,72.2,59.3,30.09,SE,135,1.8,3.4,64,0.00,,,0.00,WUHU216HW,2013-07-31 11:05:00,
2013-07-31 04:07:00,72.4,59.5,30.09,SE,135,2.9,3.4,64,0.00,,,0.00,WUHU216HW,2013-07-31 11:07:00,
2013-07-31 04:10:00,72.2,59.8,30.09,SE,135,2.0,3.4,65,0.00,,,0.00,WUHU216HW,2013-07-31 11:10:00,
2013-07-31 04:12:00,72.2,59.8,30.10,ESE,113,3.4,3.4,65,0.00,,,0.00,WUHU216HW,2013-07-31 11:12:00,
2013-07-31 04:15:00,72.0,59.6,30.10,SE,135,2.0,3.4,65,0.00,,,0.00,WUHU216HW,2013-07-31 11:15:00,
2013-07-31 04:17:00,72.0,59.6,30.10,SSE,158,1.8,3.4,65,0.00,,,0.00,WUHU216HW,2013-07-31 11:17:00,
2013-07-31 04:20:00,72.0,59.6,30.10,South,180,1.6,3.4,65,0.00,,,0.00,WUHU216HW,2013-07-31 11:20:00,
2013-07-31 04:23:00,72.0,59.6,30.10,South,180,2.0,3.6,65,0.00,,,0.00,WUHU216HW,2013-07-31 11:23:00,
2013-07-31 04:25:00,72.0,59.1,30.10,South,180,2.7,3.6,64,0.00,,,0.00,WUHU216HW,2013-07-31 11:25:00,
2013-07-31 04:27:00,72.0,59.1,30.10,South,180,2.7,3.6,64,0.00,,,0.00,WUHU216HW,2013-07-31 11:27:00,
2013-07-31 04:29:00,72.0,59.1,30.10,SSW,203,2.5,3.6,64,0.00,,,0.00,WUHU216HW,2013-07-31 11:29:00,
2013-07-31 04:30:00,72.0,59.1,30.10,SSW,203,3.4,3.6,64,0.00,,,0.00,WUHU216HW,2013-07-31 11:30:00,
2013-07-31 04:31:00,72.0,59.1,30.10,South,180,3.6,3.6,64,0.00,,,0.00,WUHU216HW,2013-07-31 11:31:00,
2013-07-31 04:32:00,72.0,59.1,30.10,SSE,158,2.5,3.6,64,0.00,,,0.00,WUHU216HW,2013-07-31 11:32:00,
2013-07-31 04:34:00,72.0,59.1,30.10,SSW,203,1.1,3.6,64,0.00,,,0.00,WUHU216HW,2013-07-31 11:34:00,
2013-07-31 04:36:00,72.0,59.1,30.10,SSE,158,3.1,3.6,64,0.00,,,0.00,WUHU216HW,2013-07-31 11:36:00,
2013-07-31 04:37:00,72.0,59.1,30.10,South,180,4.0,4.0,64,0.00,,,0.00,WUHU216HW,2013-07-31 11:37:00,
2013-07-31 04:39:00,72.0,58.7,30.10,SSW,203,2.9,4.0,63,0.00,,,0.00,WUHU216HW,2013-07-31 11:39:00,
2013-07-31 04:41:00,72.0,58.7,30.10,SSW,203,1.6,4.0,63,0.00,,,0.00,WUHU216HW,2013-07-31 11:41:00,
2013-07-31 04:42:00,72.0,58.7,30.10,SSW,203,2.0,4.0,63,0.00,,,0.00,WUHU216HW,2013-07-31 11:42:00,
2013-07-31 04:44:00,72.0,58.7,30.10,SW,225,1.8,4.0,63,0.00,,,0.00,WUHU216HW,2013-07-31 11:44:00,
2013-07-31 04:46:00,72.0,58.7,30.10,SSW,203,2.2,4.0,63,0.00,,,0.00,WUHU216HW,2013-07-31 11:46:00,
2013-07-31 04:47:00,72.0,58.7,30.10,SSW,203,2.5,4.0,63,0.00,,,0.00,WUHU216HW,2013-07-31 11:47:00,
2013-07-31 04:50:00,72.0,58.7,30.10,SSW,203,1.6,3.1,63,0.00,,,0.00,WUHU216HW,2013-07-31 11:50:00,
2013-07-31 04:51:00,71.8,58.5,30.10,SSE,158,0.0,3.1,63,0.00,,,0.00,WUHU216HW,2013-07-31 11:51:00,
2013-07-31 04:52:00,71.8,58.5,30.10,SSE,158,0.0,3.1,63,0.00,,,0.00,WUHU216HW,2013-07-31 11:52:00,
2013-07-31 04:53:00,71.8,58.5,30.10,SSE,158,0.0,3.1,63,0.00,,,0.00,WUHU216HW,2013-07-31 11:53:00,
2013-07-31 04:55:00,71.8,58.5,30.10,South,180,1.6,3.1,63,0.00,,,0.00,WUHU216HW,2013-07-31 11:55:00,
2013-07-31 04:57:00,71.8,59.0,30.10,SSW,203,1.6,2.7,64,0.00,,,0.00,WUHU216HW,2013-07-31 11:57:00,
2013-07-31 04:58:00,71.6,58.8,30.10,SW,225,1.1,1.8,64,0.00,,,0.00,WUHU216HW,2013-07-31 11:58:00,
2013-07-31 05:00:00,71.6,58.8,30.10,WSW,248,1.3,1.6,64,0.00,,,0.00,WUHU216HW,2013-07-31 12:00:00,
2013-07-31 05:02:00,71.6,58.8,30.10,SSW,203,1.1,1.6,64,0.00,,,0.00,WUHU216HW,2013-07-31 12:02:00,
2013-07-31 05:03:00,71.6,58.8,30.10,SSW,203,1.1,1.6,64,0.00,,,0.00,WUHU216HW,2013-07-31 12:03:00,
2013-07-31 05:05:00,71.5,58.6,30.10,South,180,1.1,1.6,64,0.00,,,0.00,WUHU216HW,2013-07-31 12:05:00,
2013-07-31 05:07:00,71.5,58.6,30.10,SSW,203,0.4,1.8,64,0.00,,,0.00,WUHU216HW,2013-07-31 12:07:00,
2013-07-31 05:08:00,71.5,58.6,30.10,SSW,203,0.0,1.8,64,0.00,,,0.00,WUHU216HW,2013-07-31 12:08:00,
2013-07-31 05:11:00,71.3,58.4,30.10,WSW,248,0.9,1.8,64,0.00,,,0.00,WUHU216HW,2013-07-31 12:11:00,
2013-07-31 05:13:00,71.3,58.4,30.10,WSW,248,0.9,1.8,64,0.00,,,0.00,WUHU216HW,2013-07-31 12:13:00,
2013-07-31 05:16:00,71.3,58.1,30.10,WSW,248,0.0,1.6,63,0.00,,,0.00,WUHU216HW,2013-07-31 12:16:00,
2013-07-31 05:18:00,71.3,58.1,30.10,WSW,248,1.1,1.6,63,0.00,,,0.00,WUHU216HW,2013-07-31 12:18:00,
2013-07-31 05:21:00,71.3,58.4,30.11,ENE,68,1.8,1.8,64,0.00,,,0.00,WUHU216HW,2013-07-31 12:21:00,
2013-07-31 05:23:00,71.3,58.4,30.11,NE,45,1.6,1.8,64,0.00,,,0.00,WUHU216HW,2013-07-31 12:23:00,
2013-07-31 05:26:00,71.1,58.3,30.11,NNE,23,0.7,2.2,64,0.00,,,0.00,WUHU216HW,2013-07-31 12:26:00,
2013-07-31 05:28:00,71.1,58.3,30.11,NNE,23,0.9,2.2,64,0.00,,,0.00,WUHU216HW,2013-07-31 12:28:00,
2013-07-31 05:29:00,71.1,58.3,30.11,NNE,23,0.4,2.2,64,0.00,,,0.00,WUHU216HW,2013-07-31 12:29:00,
2013-07-31 05:31:00,71.1,57.9,30.11,North,0,0.0,2.2,63,0.00,,,0.00,WUHU216HW,2013-07-31 12:31:00,
2013-07-31 05:33:00,70.9,57.7,30.11,NNW,338,0.2,2.2,63,0.00,,,0.00,WUHU216HW,2013-07-31 12:33:00,
2013-07-31 05:34:00,71.1,57.9,30.11,NNW,338,0.4,2.2,63,0.00,,,0.00,WUHU216HW,2013-07-31 12:34:00,
2013-07-31 05:35:00,70.9,57.7,30.11,NNW,338,1.1,2.2,63,0.00,,,0.00,WUHU216HW,2013-07-31 12:35:00,
2013-07-31 05:37:00,70.9,57.7,30.11,North,0,0.0,1.8,63,0.00,,,0.00,WUHU216HW,2013-07-31 12:37:00,
2013-07-31 05:38:00,71.1,57.9,30.11,North,0,0.0,1.1,63,0.00,,,0.00,WUHU216HW,2013-07-31 12:38:00,
2013-07-31 05:39:00,71.1,57.4,30.11,North,0,0.0,1.1,62,0.00,,,0.00,WUHU216HW,2013-07-31 12:39:00,
2013-07-31 05:40:00,71.1,57.4,30.11,North,0,0.0,1.1,62,0.00,,,0.00,WUHU216HW,2013-07-31 12:40:00,
2013-07-31 05:42:00,71.1,57.9,30.11,South,180,0.7,1.1,63,0.00,,,0.00,WUHU216HW,2013-07-31 12:42:00,
2013-07-31 05:44:00,71.1,57.9,30.11,SW,225,1.3,1.3,63,0.00,,,0.00,WUHU216HW,2013-07-31 12:44:00,
2013-07-31 05:45:00,71.1,58.7,30.11,SW,225,0.9,1.6,65,0.00,,,0.00,WUHU216HW,2013-07-31 12:45:00,
2013-07-31 05:47:00,71.1,58.7,30.11,WSW,248,1.1,1.6,65,0.00,,,0.00,WUHU216HW,2013-07-31 12:47:00,
2013-07-31 05:49:00,71.1,58.7,30.11,WSW,248,0.0,1.6,65,0.00,,,0.00,WUHU216HW,2013-07-31 12:49:00,
2013-07-31 05:51:00,71.1,58.7,30.11,ESE,113,0.0,1.6,65,0.00,,,0.00,WUHU216HW,2013-07-31 12:51:00,
2013-07-31 05:52:00,71.1,58.7,30.11,ESE,113,0.0,1.6,65,0.00,,,0.00,WUHU216HW,2013-07-31 12:52:00,
2013-07-31 05:54:00,71.1,58.7,30.11,ESE,113,0.0,1.6,65,0.00,,,0.00,WUHU216HW,2013-07-31 12:54:00,
2013-07-31 05:55:00,70.9,58.5,30.11,ESE,113,0.0,1.6,65,0.00,,,0.00,WUHU216HW,2013-07-31 12:55:00,
2013-07-31 05:56:00,70.9,58.5,30.11,ESE,113,0.0,1.3,65,0.00,,,0.00,WUHU216HW,2013-07-31 12:56:00,
2013-07-31 05:57:00,70.9,58.5,30.11,ESE,113,0.0,1.1,65,0.00,,,0.00,WUHU216HW,2013-07-31 12:57:00,
2013-07-31 05:59:00,70.9,58.5,30.11,ESE,113,0.0,1.1,65,0.00,,,0.00,WUHU216HW,2013-07-31 12:59:00,
2013-07-31 06:00:00,70.9,58.5,30.12,ESE,113,0.0,1.1,65,0.00,,,0.00,WUHU216HW,2013-07-31 13:00:00,
2013-07-31 06:01:00,70.9,58.5,30.12,ESE,113,0.0,0.0,65,0.00,,,0.00,WUHU216HW,2013-07-31 13:01:00,
2013-07-31 06:02:00,70.9,58.5,30.12,ESE,113,0.0,0.0,65,0.00,,,0.00,WUHU216HW,2013-07-31 13:02:00,
2013-07-31 06:04:00,70.7,58.3,30.12,ESE,113,0.0,0.0,65,0.00,,,0.00,WUHU216HW,2013-07-31 13:04:00,
2013-07-31 06:05:00,70.9,58.5,30.12,ESE,113,0.0,0.0,65,0.00,,,0.00,WUHU216HW,2013-07-31 13:05:00,
2013-07-31 06:06:00,70.7,58.8,30.12,ESE,113,0.0,0.0,66,0.00,,,0.00,WUHU216HW,2013-07-31 13:06:00,
2013-07-31 06:08:00,70.7,59.2,30.12,WNW,293,0.4,1.3,67,0.00,,,0.00,WUHU216HW,2013-07-31 13:08:00,
2013-07-31 06:09:00,70.7,59.2,30.12,West,270,1.1,1.8,67,0.00,,,0.00,WUHU216HW,2013-07-31 13:09:00,
2013-07-31 06:10:00,70.7,59.2,30.12,West,270,1.3,1.8,67,0.00,,,0.00,WUHU216HW,2013-07-31 13:10:00,
2013-07-31 06:11:00,70.7,59.2,30.12,West,270,1.3,1.8,67,0.00,,,0.00,WUHU216HW,2013-07-31 13:11:00,
2013-07-31 06:13:00,70.7,59.7,30.12,WNW,293,1.6,1.8,68,0.00,,,0.00,WUHU216HW,2013-07-31 13:13:00,
2013-07-31 06:14:00,70.7,59.7,30.12,West,270,1.6,1.8,68,0.00,,,0.00,WUHU216HW,2013-07-31 13:14:00,
2013-07-31 06:15:00,70.7,59.7,30.12,West,270,1.8,1.8,68,0.00,,,0.00,WUHU216HW,2013-07-31 13:15:00,
2013-07-31 06:16:00,70.7,59.7,30.12,West,270,1.8,1.8,68,0.00,,,0.00,WUHU216HW,2013-07-31 13:16:00,
2013-07-31 06:18:00,70.7,59.7,30.12,West,270,2.5,2.5,68,0.00,,,0.00,WUHU216HW,2013-07-31 13:18:00,
2013-07-31 06:19:00,70.7,59.7,30.12,WSW,248,1.8,2.5,68,0.00,,,0.00,WUHU216HW,2013-07-31 13:19:00,
2013-07-31 06:20:00,70.7,59.7,30.12,WSW,248,2.0,2.5,68,0.00,,,0.00,WUHU216HW,2013-07-31 13:20:00,
2013-07-31 06:22:00,70.7,59.7,30.12,WSW,248,2.2,2.7,68,0.00,,,0.00,WUHU216HW,2013-07-31 13:22:00,
2013-07-31 06:23:00,70.7,59.2,30.12,West,270,3.4,3.4,67,0.00,,,0.00,WUHU216HW,2013-07-31 13:23:00,
2013-07-31 06:25:00,70.7,59.2,30.12,West,270,3.1,4.0,67,0.00,,,0.00,WUHU216HW,2013-07-31 13:25:00,
2013-07-31 06:26:00,70.7,59.2,30.12,West,270,3.8,4.0,67,0.00,,,0.00,WUHU216HW,2013-07-31 13:26:00,
2013-07-31 06:27:00,70.7,59.2,30.12,WNW,293,2.5,4.0,67,0.00,,,0.00,WUHU216HW,2013-07-31 13:27:00,
2013-07-31 06:28:00,70.9,59.4,30.12,WNW,293,2.9,4.0,67,0.00,,,0.00,WUHU216HW,2013-07-31 13:28:00,
2013-07-31 06:30:00,70.9,59.0,30.12,WNW,293,2.7,4.0,66,0.00,,,0.00,WUHU216HW,2013-07-31 13:30:00,
2013-07-31 06:31:00,70.9,59.0,30.12,WNW,293,2.9,4.0,66,0.00,,,0.00,WUHU216HW,2013-07-31 13:31:00,
2013-07-31 06:33:00,70.9,58.5,30.12,WNW,293,2.9,4.0,65,0.00,,,0.00,WUHU216HW,2013-07-31 13:33:00,
2013-07-31 06:35:00,70.9,58.2,30.12,West,270,3.4,3.8,64,0.00,,,0.00,WUHU216HW,2013-07-31 13:35:00,
2013-07-31 06:38:00,71.1,58.3,30.12,West,270,3.4,3.6,64,0.00,,,0.00,WUHU216HW,2013-07-31 13:38:00,
2013-07-31 06:40:00,71.3,58.9,30.12,West,270,1.8,3.4,65,0.00,,,0.00,WUHU216HW,2013-07-31 13:40:00,
2013-07-31 06:43:00,71.3,58.9,30.12,NW,315,2.9,3.4,65,0.00,,,0.00,WUHU216HW,2013-07-31 13:43:00,
2013-07-31 06:44:00,71.3,59.3,30.12,WNW,293,2.7,3.4,66,0.00,,,0.00,WUHU216HW,2013-07-31 13:44:00,
2013-07-31 06:45:00,71.3,58.9,30.12,WNW,293,2.5,3.4,65,0.00,,,0.00,WUHU216HW,2013-07-31 13:45:00,
2013-07-31 06:48:00,71.3,58.9,30.12,WNW,293,2.0,3.4,65,0.00,,,0.00,WUHU216HW,2013-07-31 13:48:00,
2013-07-31 06:49:00,71.5,59.0,30.12,WNW,293,1.8,3.4,65,0.00,,,0.00,WUHU216HW,2013-07-31 13:49:00,
2013-07-31 06:50:00,71.5,59.0,30.12,WNW,293,2.5,3.4,65,0.00,,,0.00,WUHU216HW,2013-07-31 13:50:00,
2013-07-31 06:53:00,71.6,59.2,30.12,NW,315,0.9,3.4,65,0.00,,,0.00,WUHU216HW,2013-07-31 13:53:00,
2013-07-31 06:54:00,71.6,59.2,30.12,NW,315,1.8,3.4,65,0.00,,,0.00,WUHU216HW,2013-07-31 13:54:00,
2013-07-31 06:55:00,71.6,59.2,30.12,NW,315,0.7,3.1,65,0.00,,,0.00,WUHU216HW,2013-07-31 13:55:00,
2013-07-31 06:58:00,71.8,59.9,30.12,NW,315,1.8,2.7,66,0.00,,,0.00,WUHU216HW,2013-07-31 13:58:00,
2013-07-31 06:59:00,71.8,59.9,30.12,West,270,1.8,2.7,66,0.00,,,0.00,WUHU216HW,2013-07-31 13:59:00,
2013-07-31 07:00:00,71.8,59.9,30.12,West,270,1.1,2.7,66,0.00,,,0.00,WUHU216HW,2013-07-31 14:00:00,
2013-07-31 07:03:00,71.8,59.9,30.12,West,270,0.9,2.0,66,0.00,,,0.00,WUHU216HW,2013-07-31 14:03:00,
2013-07-31 07:04:00,72.0,60.0,30.12,West,270,1.6,2.0,66,0.00,,,0.00,WUHU216HW,2013-07-31 14:04:00,
2013-07-31 07:06:00,72.0,60.0,30.12,West,270,1.8,1.8,66,0.00,,,0.00,WUHU216HW,2013-07-31 14:06:00,
2013-07-31 07:08:00,72.0,60.0,30.12,WNW,293,1.8,1.8,66,0.00,,,0.00,WUHU216HW,2013-07-31 14:08:00,
2013-07-31 07:09:00,72.0,60.0,30.12,WNW,293,1.8,2.5,66,0.00,,,0.00,WUHU216HW,2013-07-31 14:09:00,
2013-07-31 07:10:00,72.2,60.2,30.12,West,270,1.8,2.5,66,0.00,,,0.00,WUHU216HW,2013-07-31 14:10:00,
2013-07-31 07:12:00,72.2,60.2,30.12,West,270,1.6,2.5,66,0.00,,,0.00,WUHU216HW,2013-07-31 14:12:00,
2013-07-31 07:13:00,72.2,60.2,30.12,NNW,338,0.4,2.5,66,0.00,,,0.00,WUHU216HW,2013-07-31 14:13:00,
2013-07-31 07:14:00,72.4,60.3,30.12,NNW,338,0.4,2.5,66,0.00,,,0.00,WUHU216HW,2013-07-31 14:14:00,
2013-07-31 07:15:00,72.4,60.3,30.12,NNE,23,1.1,2.5,66,0.00,,,0.00,WUHU216HW,2013-07-31 14:15:00,
2013-07-31 07:17:00,72.7,61.1,30.12,NE,45,2.7,2.7,67,0.00,,,0.00,WUHU216HW,2013-07-31 14:17:00,
2013-07-31 07:19:00,72.7,61.1,30.12,ENE,68,2.0,2.7,67,0.00,,,0.00,WUHU216HW,2013-07-31 14:19:00,
2013-07-31 07:20:00,72.9,61.3,30.13,ENE,68,2.0,2.7,67,0.00,,,0.00,WUHU216HW,2013-07-31 14:20:00,
2013-07-31 07:23:00,73.3,61.7,30.13,NE,45,2.2,3.4,67,0.00,,,0.00,WUHU216HW,2013-07-31 14:23:00,
2013-07-31 07:24:00,73.1,61.5,30.13,ENE,68,3.4,3.8,67,0.00,,,0.00,WUHU216HW,2013-07-31 14:24:00,
2013-07-31 07:25:00,73.4,61.8,30.13,NE,45,3.4,3.8,67,0.00,,,0.00,WUHU216HW,2013-07-31 14:25:00,
2013-07-31 07:26:00,73.4,61.8,30.13,NNE,23,2.7,3.8,67,0.00,,,0.00,WUHU216HW,2013-07-31 14:26:00,
2013-07-31 07:28:00,73.6,61.6,30.13,NE,45,1.8,3.8,66,0.00,,,0.00,WUHU216HW,2013-07-31 14:28:00,
2013-07-31 07:29:00,73.6,61.6,30.13,NE,45,2.0,3.8,66,0.00,,,0.00,WUHU216HW,2013-07-31 14:29:00,
2013-07-31 07:30:00,73.6,61.6,30.13,North,0,1.8,3.8,66,0.00,,,0.00,WUHU216HW,2013-07-31 14:30:00,
2013-07-31 07:31:00,73.6,61.6,30.13,NNE,23,2.2,3.8,66,0.00,,,0.00,WUHU216HW,2013-07-31 14:31:00,
2013-07-31 07:33:00,73.8,61.8,30.13,NNE,23,0.7,3.8,66,0.00,,,0.00,WUHU216HW,2013-07-31 14:33:00,
2013-07-31 07:34:00,73.8,61.8,30.13,NNE,23,1.1,3.4,66,0.00,,,0.00,WUHU216HW,2013-07-31 14:34:00,
2013-07-31 07:36:00,74.2,62.1,30.13,NNE,23,2.5,2.5,66,0.00,,,0.00,WUHU216HW,2013-07-31 14:36:00,
2013-07-31 07:38:00,74.2,61.7,30.13,North,0,0.4,2.5,65,0.00,,,0.00,WUHU216HW,2013-07-31 14:38:00,
2013-07-31 07:39:00,74.3,62.2,30.13,North,0,1.1,2.5,66,0.00,,,0.00,WUHU216HW,2013-07-31 14:39:00,
2013-07-31 07:41:00,74.3,61.8,30.13,NNE,23,2.0,2.5,65,0.00,,,0.00,WUHU216HW,2013-07-31 14:41:00,
2013-07-31 07:44:00,74.5,61.9,30.13,NNW,338,0.4,2.5,65,0.00,,,0.00,WUHU216HW,2013-07-31 14:44:00,
2013-07-31 07:45:00,74.7,61.7,30.13,NNE,23,0.9,2.5,64,0.00,,,0.00,WUHU216HW,2013-07-31 14:45:00,
2013-07-31 07:46:00,74.9,61.8,30.13,NNW,338,0.0,2.5,64,0.00,,,0.00,WUHU216HW,2013-07-31 14:46:00,
2013-07-31 07:47:00,74.9,61.8,30.13,North,0,0.2,2.5,64,0.00,,,0.00,WUHU216HW,2013-07-31 14:47:00,
2013-07-31 07:49:00,75.1,61.6,30.13,NNW,338,1.3,2.5,63,0.00,,,0.00,WUHU216HW,2013-07-31 14:49:00,
2013-07-31 07:50:00,75.2,61.7,30.13,North,0,1.1,2.5,63,0.00,,,0.00,WUHU216HW,2013-07-31 14:50:00,
2013-07-31 07:52:00,75.2,61.4,30.13,North,0,1.6,2.5,62,0.00,,,0.00,WUHU216HW,2013-07-31 14:52:00,
2013-07-31 07:54:00,75.4,61.5,30.13,NNE,23,3.8,3.8,62,0.00,,,0.00,WUHU216HW,2013-07-31 14:54:00,
2013-07-31 07:55:00,75.6,61.7,30.13,North,0,2.5,3.8,62,0.00,,,0.00,WUHU216HW,2013-07-31 14:55:00,
2013-07-31 07:57:00,75.6,61.7,30.13,NW,315,2.9,3.8,62,0.00,,,0.00,WUHU216HW,2013-07-31 14:57:00,
2013-07-31 07:58:00,75.8,61.8,30.13,NE,45,3.4,3.8,62,0.00,,,0.00,WUHU216HW,2013-07-31 14:58:00,
2013-07-31 07:59:00,76.0,61.6,30.13,North,0,1.8,3.8,61,0.00,,,0.00,WUHU216HW,2013-07-31 14:59:00,
2013-07-31 08:00:00,76.0,61.6,30.13,NNE,23,0.9,3.8,61,0.00,,,0.00,WUHU216HW,2013-07-31 15:00:00,
2013-07-31 08:02:00,76.0,62.0,30.13,North,0,2.9,3.8,62,0.00,,,0.00,WUHU216HW,2013-07-31 15:02:00,
2013-07-31 08:03:00,76.1,61.8,30.13,NNW,338,2.2,4.9,61,0.00,,,0.00,WUHU216HW,2013-07-31 15:03:00,
2013-07-31 08:04:00,76.3,61.9,30.13,NNE,23,2.2,4.9,61,0.00,,,0.00,WUHU216HW,2013-07-31 15:04:00,
2013-07-31 08:05:00,76.1,61.8,30.13,North,0,4.0,4.9,61,0.00,,,0.00,WUHU216HW,2013-07-31 15:05:00,
2013-07-31 08:07:00,76.3,61.9,30.13,North,0,0.7,4.9,61,0.00,,,0.00,WUHU216HW,2013-07-31 15:07:00,
2013-07-31 08:08:00,76.5,62.1,30.13,NNE,23,2.7,4.9,61,0.00,,,0.00,WUHU216HW,2013-07-31 15:08:00,
2013-07-31 08:09:00,76.7,61.7,30.13,North,0,1.8,4.9,60,0.00,,,0.00,WUHU216HW,2013-07-31 15:09:00,
2013-07-31 08:10:00,76.7,61.7,30.13,NNE,23,1.8,4.9,60,0.00,,,0.00,WUHU216HW,2013-07-31 15:10:00,
2013-07-31 08:12:00,76.7,62.2,30.14,NNE,23,0.9,4.9,61,0.00,,,0.00,WUHU216HW,2013-07-31 15:12:00,
2013-07-31 08:13:00,76.9,62.4,30.14,NNW,338,1.1,4.0,61,0.00,,,0.00,WUHU216HW,2013-07-31 15:13:00,
2013-07-31 08:14:00,77.0,62.6,30.14,North,0,1.8,4.0,61,0.00,,,0.00,WUHU216HW,2013-07-31 15:14:00,
2013-07-31 08:15:00,77.0,62.6,30.14,NNW,338,1.1,4.0,61,0.00,,,0.00,WUHU216HW,2013-07-31 15:15:00,
2013-07-31 08:17:00,77.2,61.7,30.14,NNW,338,1.6,5.1,59,0.00,,,0.00,WUHU216HW,2013-07-31 15:17:00,
2013-07-31 08:18:00,77.2,61.7,30.14,North,0,4.7,5.1,59,0.00,,,0.00,WUHU216HW,2013-07-31 15:18:00,
2013-07-31 08:19:00,77.4,60.4,30.14,North,0,2.0,5.1,56,0.00,,,0.00,WUHU216HW,2013-07-31 15:19:00,
2013-07-31 08:20:00,77.4,60.9,30.14,North,0,2.0,5.1,57,0.00,,,0.00,WUHU216HW,2013-07-31 15:20:00,
2013-07-31 08:22:00,77.6,61.7,30.14,North,0,2.2,5.1,58,0.00,,,0.00,WUHU216HW,2013-07-31 15:22:00,
2013-07-31 08:23:00,77.8,61.3,30.14,North,0,1.1,5.1,57,0.00,,,0.00,WUHU216HW,2013-07-31 15:23:00,
2013-07-31 08:25:00,78.1,62.2,30.14,NNE,23,1.8,5.1,58,0.00,,,0.00,WUHU216HW,2013-07-31 15:25:00,
2013-07-31 08:26:00,78.3,62.8,30.14,NNW,338,2.7,4.7,59,0.00,,,0.00,WUHU216HW,2013-07-31 15:26:00,
2013-07-31 08:27:00,78.5,62.5,30.14,North,0,3.4,4.7,58,0.00,,,0.00,WUHU216HW,2013-07-31 15:27:00,
2013-07-31 08:28:00,78.7,62.6,30.14,ENE,68,1.1,4.7,58,0.00,,,0.00,WUHU216HW,2013-07-31 15:28:00,
2013-07-31 08:30:00,79.0,63.0,30.14,NE,45,3.8,4.0,58,0.00,,,0.00,WUHU216HW,2013-07-31 15:30:00,
2013-07-31 08:32:00,79.6,63.6,30.14,North,0,2.2,4.3,58,0.00,,,0.00,WUHU216HW,2013-07-31 15:32:00,
2013-07-31 08:33:00,79.7,63.2,30.14,NNW,338,0.7,4.3,57,0.00,,,0.00,WUHU216HW,2013-07-31 15:33:00,
2013-07-31 08:34:00,79.9,63.3,30.14,NNW,338,0.7,4.3,57,0.00,,,0.00,WUHU216HW,2013-07-31 15:34:00,
2013-07-31 08:35:00,79.9,63.3,30.14,NNW,338,0.7,4.3,57,0.00,,,0.00,WUHU216HW,2013-07-31 15:35:00,
2013-07-31 08:37:00,79.9,63.3,30.14,NNW,338,0.7,4.3,57,0.00,,,0.00,WUHU216HW,2013-07-31 15:37:00,
2013-07-31 08:38:00,79.9,63.3,30.14,NNW,338,0.7,4.3,57,0.00,,,0.00,WUHU216HW,2013-07-31 15:38:00,
2013-07-31 08:39:00,79.9,63.3,30.14,NNW,338,0.7,4.3,57,0.00,,,0.00,WUHU216HW,2013-07-31 15:39:00,
2013-07-31 08:40:00,79.9,63.3,30.14,NNW,338,0.7,4.3,57,0.00,,,0.00,WUHU216HW,2013-07-31 15:40:00,
2013-07-31 08:42:00,79.9,63.3,30.14,NNW,338,0.7,3.1,57,0.00,,,0.00,WUHU216HW,2013-07-31 15:42:00,
2013-07-31 08:43:00,79.9,63.3,30.14,NNW,338,0.7,0.7,57,0.00,,,0.00,WUHU216HW,2013-07-31 15:43:00,
2013-07-31 09:00:00,82.4,63.0,30.14,NE,45,2.9,2.9,52,0.00,,,0.00,WUHU216HW,2013-07-31 16:00:00,
2013-07-31 09:05:00,82.4,63.0,30.14,NE,45,2.9,2.9,52,0.00,,,0.00,WUHU216HW,2013-07-31 16:05:00,
2013-07-31 09:59:00,85.7,58.7,30.13,WNW,293,1.8,1.8,40,0.00,,,0.00,WUHU216HW,2013-07-31 16:59:00,
2013-07-31 10:00:00,85.7,58.7,30.13,WNW,293,1.8,1.8,40,0.00,,,0.00,WUHU216HW,2013-07-31 17:00:00,
2013-07-31 10:05:00,85.5,57.0,30.13,NNW,338,0.7,2.5,38,0.00,,,0.00,WUHU216HW,2013-07-31 17:05:00,
2013-07-31 10:10:00,85.3,58.4,30.13,NE,45,2.2,3.4,40,0.00,,,0.00,WUHU216HW,2013-07-31 17:10:00,
2013-07-31 10:15:00,85.3,59.7,30.13,ESE,113,2.5,4.0,42,0.00,,,0.00,WUHU216HW,2013-07-31 17:15:00,
2013-07-31 10:16:00,85.3,59.7,30.13,ENE,68,1.6,4.0,42,0.00,,,0.00,WUHU216HW,2013-07-31 17:16:00,
2013-07-31 10:17:00,85.3,59.7,30.13,NNE,23,4.7,4.7,42,0.00,,,0.00,WUHU216HW,2013-07-31 17:17:00,
2013-07-31 10:20:00,85.3,59.7,30.13,NE,45,2.5,4.7,42,0.00,,,0.00,WUHU216HW,2013-07-31 17:20:00,
2013-07-31 10:21:00,85.1,59.5,30.13,NE,45,2.2,4.7,42,0.00,,,0.00,WUHU216HW,2013-07-31 17:21:00,
2013-07-31 10:22:00,85.1,59.5,30.13,NE,45,1.8,4.7,42,0.00,,,0.00,WUHU216HW,2013-07-31 17:22:00,
2013-07-31 10:26:00,85.3,60.3,30.13,NE,45,3.1,4.7,43,0.00,,,0.00,WUHU216HW,2013-07-31 17:26:00,
2013-07-31 10:27:00,85.3,60.3,30.13,NE,45,3.6,4.7,43,0.00,,,0.00,WUHU216HW,2013-07-31 17:27:00,
2013-07-31 10:31:00,85.3,60.3,30.13,NNE,23,1.8,3.8,43,0.00,,,0.00,WUHU216HW,2013-07-31 17:31:00,
2013-07-31 10:32:00,85.5,60.5,30.13,NNW,338,1.8,3.8,43,0.00,,,0.00,WUHU216HW,2013-07-31 17:32:00,
2013-07-31 10:36:00,85.7,58.0,30.13,West,270,1.1,3.8,39,0.00,,,0.00,WUHU216HW,2013-07-31 17:36:00,
2013-07-31 10:37:00,85.7,58.0,30.13,NW,315,1.1,3.8,39,0.00,,,0.00,WUHU216HW,2013-07-31 17:37:00,
2013-07-31 10:41:00,85.5,57.0,30.13,WSW,248,2.5,2.9,38,0.00,,,0.00,WUHU216HW,2013-07-31 17:41:00,
2013-07-31 10:42:00,85.5,57.0,30.13,WNW,293,2.2,3.4,38,0.00,,,0.00,WUHU216HW,2013-07-31 17:42:00,
2013-07-31 10:47:00,85.5,59.2,30.13,SSE,158,1.1,3.4,41,0.00,,,0.00,WUHU216HW,2013-07-31 17:47:00,
2013-07-31 10:48:00,85.5,59.2,30.13,SE,135,1.1,3.4,41,0.00,,,0.00,WUHU216HW,2013-07-31 17:48:00,
2013-07-31 10:52:00,85.7,59.9,30.13,NE,45,2.5,4.0,42,0.00,,,0.00,WUHU216HW,2013-07-31 17:52:00,
2013-07-31 10:53:00,85.7,59.9,30.13,NNE,23,1.8,4.0,42,0.00,,,0.00,WUHU216HW,2013-07-31 17:53:00,
2013-07-31 10:54:00,85.7,59.3,30.13,East,90,2.5,4.0,41,0.00,,,0.00,WUHU216HW,2013-07-31 17:54:00,
2013-07-31 10:58:00,85.9,60.1,30.13,NE,45,1.1,4.0,42,0.00,,,0.00,WUHU216HW,2013-07-31 17:58:00,
2013-07-31 10:59:00,85.9,60.1,30.13,NNE,23,1.8,4.0,42,0.00,,,0.00,WUHU216HW,2013-07-31 17:59:00,
2013-07-31 11:03:00,86.4,61.3,30.13,NW,315,0.9,2.5,43,0.00,,,0.00,WUHU216HW,2013-07-31 18:03:00,
2013-07-31 11:04:00,86.6,60.8,30.13,North,0,0.4,2.5,42,0.00,,,0.00,WUHU216HW,2013-07-31 18:04:00,
2013-07-31 11:08:00,87.1,61.9,30.13,East,90,1.8,4.0,43,0.00,,,0.00,WUHU216HW,2013-07-31 18:08:00,
2013-07-31 11:09:00,87.1,61.9,30.13,ENE,68,2.9,4.0,43,0.00,,,0.00,WUHU216HW,2013-07-31 18:09:00,
2013-07-31 11:10:00,87.3,62.1,30.13,NE,45,2.0,4.0,43,0.00,,,0.00,WUHU216HW,2013-07-31 18:10:00,
2013-07-31 11:13:00,87.8,61.9,30.13,SE,135,2.5,4.0,42,0.00,,,0.00,WUHU216HW,2013-07-31 18:13:00,
2013-07-31 11:14:00,87.8,61.9,30.13,ENE,68,3.1,4.0,42,0.00,,,0.00,WUHU216HW,2013-07-31 18:14:00,
2013-07-31 11:15:00,88.0,62.1,30.13,East,90,5.4,5.4,42,0.00,,,0.00,WUHU216HW,2013-07-31 18:15:00,
2013-07-31 11:18:00,88.6,61.8,30.13,South,180,1.1,5.4,41,0.00,,,0.00,WUHU216HW,2013-07-31 18:18:00,
2013-07-31 11:19:00,88.6,61.8,30.13,SSW,203,0.9,5.4,41,0.00,,,0.00,WUHU216HW,2013-07-31 18:19:00,
2013-07-31 11:20:00,88.9,62.2,30.13,South,180,0.4,5.4,41,0.00,,,0.00,WUHU216HW,2013-07-31 18:20:00,
2013-07-31 11:23:00,89.5,62.7,30.13,ENE,68,2.5,5.4,41,0.00,,,0.00,WUHU216HW,2013-07-31 18:23:00,
2013-07-31 11:24:00,89.6,62.7,30.13,NE,45,1.1,5.4,41,0.00,,,0.00,WUHU216HW,2013-07-31 18:24:00,
2013-07-31 11:25:00,89.8,62.3,30.13,WNW,293,0.7,4.5,40,0.00,,,0.00,WUHU216HW,2013-07-31 18:25:00,
2013-07-31 11:28:00,90.2,62.6,30.13,ESE,113,3.8,5.8,40,0.00,,,0.00,WUHU216HW,2013-07-31 18:28:00,
2013-07-31 11:29:00,90.4,62.7,30.13,ESE,113,3.8,5.8,40,0.00,,,0.00,WUHU216HW,2013-07-31 18:29:00,
2013-07-31 11:30:00,90.4,62.7,30.13,ENE,68,6.9,6.9,40,0.00,,,0.00,WUHU216HW,2013-07-31 18:30:00,
2013-07-31 11:31:00,90.4,62.7,30.13,East,90,5.4,6.9,40,0.00,,,0.00,WUHU216HW,2013-07-31 18:31:00,
2013-07-31 11:33:00,90.4,61.9,30.13,ENE,68,4.3,6.9,39,0.00,,,0.00,WUHU216HW,2013-07-31 18:33:00,
2013-07-31 11:34:00,90.4,61.9,30.13,ENE,68,5.8,6.9,39,0.00,,,0.00,WUHU216HW,2013-07-31 18:34:00,
2013-07-31 11:35:00,90.4,62.7,30.13,ESE,113,6.0,6.9,40,0.00,,,0.00,WUHU216HW,2013-07-31 18:35:00,
2013-07-31 11:36:00,90.2,62.6,30.13,East,90,4.0,8.3,40,0.00,,,0.00,WUHU216HW,2013-07-31 18:36:00,
2013-07-31 11:38:00,89.6,62.1,30.13,East,90,5.1,8.3,40,0.00,,,0.00,WUHU216HW,2013-07-31 18:38:00,
2013-07-31 11:39:00,89.6,62.1,30.13,East,90,3.1,8.3,40,0.00,,,0.00,WUHU216HW,2013-07-31 18:39:00,
2013-07-31 11:40:00,89.6,62.1,30.13,East,90,3.1,8.3,40,0.00,,,0.00,WUHU216HW,2013-07-31 18:40:00,
2013-07-31 11:41:00,89.5,61.9,30.13,ESE,113,5.4,8.3,40,0.00,,,0.00,WUHU216HW,2013-07-31 18:41:00,
2013-07-31 11:43:00,88.9,62.2,30.13,East,90,3.6,8.3,41,0.00,,,0.00,WUHU216HW,2013-07-31 18:43:00,
2013-07-31 11:44:00,88.9,62.8,30.13,East,90,6.3,8.3,42,0.00,,,0.00,WUHU216HW,2013-07-31 18:44:00,
2013-07-31 11:45:00,88.7,62.6,30.13,ESE,113,8.5,8.5,42,0.00,,,0.00,WUHU216HW,2013-07-31 18:45:00,
2013-07-31 11:46:00,88.6,62.6,30.13,ESE,113,6.9,8.5,42,0.00,,,0.00,WUHU216HW,2013-07-31 18:46:00,
2013-07-31 11:48:00,88.2,62.8,30.13,ENE,68,6.0,8.5,43,0.00,,,0.00,WUHU216HW,2013-07-31 18:48:00,
2013-07-31 11:50:00,88.2,62.8,30.12,East,90,8.9,8.9,43,0.00,,,0.00,WUHU216HW,2013-07-31 18:50:00,
2013-07-31 11:51:00,88.0,62.7,30.12,ESE,113,9.4,10.5,43,0.00,,,0.00,WUHU216HW,2013-07-31 18:51:00,
2013-07-31 11:54:00,87.7,63.6,30.12,East,90,7.4,10.5,45,0.00,,,0.00,WUHU216HW,2013-07-31 18:54:00,
2013-07-31 11:55:00,87.7,63.6,30.12,East,90,7.2,10.5,45,0.00,,,0.00,WUHU216HW,2013-07-31 18:55:00,
2013-07-31 11:56:00,87.5,63.5,30.12,ESE,113,4.0,10.5,45,0.00,,,0.00,WUHU216HW,2013-07-31 18:56:00,
2013-07-31 11:59:00,87.3,64.0,30.12,ENE,68,8.1,10.5,46,0.00,,,0.00,WUHU216HW,2013-07-31 18:59:00,
2013-07-31 12:00:00,87.3,64.0,30.12,ENE,68,7.4,10.5,46,0.00,,,0.00,WUHU216HW,2013-07-31 19:00:00,
2013-07-31 12:01:00,87.3,64.0,30.12,ENE,68,6.3,9.8,46,0.00,,,0.00,WUHU216HW,2013-07-31 19:01:00,
2013-07-31 12:04:00,87.1,63.8,30.12,ENE,68,4.3,9.2,46,0.00,,,0.00,WUHU216HW,2013-07-31 19:04:00,
2013-07-31 12:05:00,87.1,63.8,30.12,NNE,23,4.0,9.2,46,0.00,,,0.00,WUHU216HW,2013-07-31 19:05:00,
2013-07-31 12:06:00,87.1,63.8,30.12,ENE,68,5.8,9.2,46,0.00,,,0.00,WUHU216HW,2013-07-31 19:06:00,
2013-07-31 12:09:00,87.3,64.0,30.12,NE,45,3.4,8.1,46,0.00,,,0.00,WUHU216HW,2013-07-31 19:09:00,
2013-07-31 12:10:00,87.1,63.8,30.12,NNE,23,4.9,7.8,46,0.00,,,0.00,WUHU216HW,2013-07-31 19:10:00,
2013-07-31 12:11:00,87.1,63.8,30.12,ENE,68,3.6,7.4,46,0.00,,,0.00,WUHU216HW,2013-07-31 19:11:00,
2013-07-31 12:12:00,87.3,64.0,30.12,ENE,68,3.1,7.4,46,0.00,,,0.00,WUHU216HW,2013-07-31 19:12:00,
2013-07-31 12:15:00,87.5,64.1,30.12,ESE,113,4.5,7.4,46,0.00,,,0.00,WUHU216HW,2013-07-31 19:15:00,
2013-07-31 12:17:00,87.5,64.1,30.12,NNE,23,4.7,6.7,46,0.00,,,0.00,WUHU216HW,2013-07-31 19:17:00,
2013-07-31 12:20:00,87.8,64.4,30.12,ENE,68,5.4,6.7,46,0.00,,,0.00,WUHU216HW,2013-07-31 19:20:00,
2013-07-31 12:21:00,88.0,64.0,30.12,NE,45,4.7,6.7,45,0.00,,,0.00,WUHU216HW,2013-07-31 19:21:00,
2013-07-31 12:22:00,88.0,64.0,30.12,NE,45,6.3,6.7,45,0.00,,,0.00,WUHU216HW,2013-07-31 19:22:00,
2013-07-31 12:26:00,88.6,63.8,30.12,ESE,113,2.5,6.7,44,0.00,,,0.00,WUHU216HW,2013-07-31 19:26:00,
2013-07-31 12:27:00,88.7,63.9,30.11,North,0,3.8,6.7,44,0.00,,,0.00,WUHU216HW,2013-07-31 19:27:00,
2013-07-31 12:31:00,89.3,63.7,30.11,NE,45,4.7,7.6,43,0.00,,,0.00,WUHU216HW,2013-07-31 19:31:00,
2013-07-31 12:32:00,89.3,63.7,30.11,ENE,68,5.6,7.6,43,0.00,,,0.00,WUHU216HW,2013-07-31 19:32:00,
2013-07-31 12:33:00,89.3,63.7,30.11,NE,45,5.8,7.6,43,0.00,,,0.00,WUHU216HW,2013-07-31 19:33:00,
2013-07-31 12:36:00,89.5,63.9,30.11,East,90,4.0,7.6,43,0.00,,,0.00,WUHU216HW,2013-07-31 19:36:00,
2013-07-31 12:37:00,89.5,63.9,30.11,ESE,113,1.8,7.6,43,0.00,,,0.00,WUHU216HW,2013-07-31 19:37:00,
2013-07-31 12:38:00,89.5,63.9,30.11,ENE,68,3.8,6.3,43,0.00,,,0.00,WUHU216HW,2013-07-31 19:38:00,
2013-07-31 12:41:00,89.3,63.1,30.11,WNW,293,3.6,6.3,42,0.00,,,0.00,WUHU216HW,2013-07-31 19:41:00,
2013-07-31 12:42:00,89.3,63.1,30.11,NE,45,2.5,6.3,42,0.00,,,0.00,WUHU216HW,2013-07-31 19:42:00,
2013-07-31 12:43:00,89.3,63.1,30.11,NNE,23,6.9,6.9,42,0.00,,,0.00,WUHU216HW,2013-07-31 19:43:00,
2013-07-31 12:46:00,89.1,62.9,30.11,North,0,2.5,6.9,42,0.00,,,0.00,WUHU216HW,2013-07-31 19:46:00,
2013-07-31 12:47:00,88.9,62.8,30.11,NNW,338,1.6,6.9,42,0.00,,,0.00,WUHU216HW,2013-07-31 19:47:00,
2013-07-31 12:48:00,88.9,62.2,30.11,NNW,338,3.4,6.9,41,0.00,,,0.00,WUHU216HW,2013-07-31 19:48:00,
2013-07-31 12:52:00,88.4,62.4,30.11,NNE,23,4.5,6.9,42,0.00,,,0.00,WUHU216HW,2013-07-31 19:52:00,
2013-07-31 12:53:00,88.6,62.6,30.11,North,0,2.9,6.9,42,0.00,,,0.00,WUHU216HW,2013-07-31 19:53:00,
2013-07-31 12:57:00,88.6,63.2,30.11,ENE,68,2.7,5.8,43,0.00,,,0.00,WUHU216HW,2013-07-31 19:57:00,
2013-07-31 12:58:00,88.6,63.2,30.11,NNE,23,1.8,5.8,43,0.00,,,0.00,WUHU216HW,2013-07-31 19:58:00,
2013-07-31 13:03:00,88.7,62.6,30.11,South,180,2.9,6.0,42,0.00,,,0.00,WUHU216HW,2013-07-31 20:03:00,
2013-07-31 13:08:00,88.6,61.8,30.11,SW,225,5.8,7.2,41,0.00,,,0.00,WUHU216HW,2013-07-31 20:08:00,
2013-07-31 13:09:00,88.6,61.8,30.11,South,180,5.4,7.8,41,0.00,,,0.00,WUHU216HW,2013-07-31 20:09:00,
2013-07-31 13:13:00,88.4,61.8,30.11,SW,225,4.3,8.1,41,0.00,,,0.00,WUHU216HW,2013-07-31 20:13:00,
2013-07-31 13:14:00,88.2,61.6,30.11,SW,225,4.0,8.1,41,0.00,,,0.00,WUHU216HW,2013-07-31 20:14:00,
2013-07-31 13:18:00,88.2,62.2,30.11,SSW,203,3.8,8.1,42,0.00,,,0.00,WUHU216HW,2013-07-31 20:18:00,
2013-07-31 13:19:00,88.2,62.2,30.11,SSW,203,3.1,8.1,42,0.00,,,0.00,WUHU216HW,2013-07-31 20:19:00,
2013-07-31 13:23:00,88.0,62.1,30.11,SW,225,5.4,7.8,42,0.00,,,0.00,WUHU216HW,2013-07-31 20:23:00,
2013-07-31 13:24:00,88.0,62.1,30.11,SW,225,6.5,7.8,42,0.00,,,0.00,WUHU216HW,2013-07-31 20:24:00,
2013-07-31 13:25:00,88.0,62.1,30.11,WSW,248,4.3,7.8,42,0.00,,,0.00,WUHU216HW,2013-07-31 20:25:00,
2013-07-31 13:28:00,87.8,59.9,30.10,SSW,203,7.4,9.4,39,0.00,,,0.00,WUHU216HW,2013-07-31 20:28:00,
2013-07-31 13:29:00,88.0,60.0,30.10,SSW,203,7.4,9.4,39,0.00,,,0.00,WUHU216HW,2013-07-31 20:29:00,
2013-07-31 13:30:00,87.8,59.0,30.10,WSW,248,7.6,10.1,38,0.00,,,0.00,WUHU216HW,2013-07-31 20:30:00,
2013-07-31 13:33:00,88.0,59.2,30.10,WSW,248,8.5,10.1,38,0.00,,,0.00,WUHU216HW,2013-07-31 20:33:00,
2013-07-31 13:34:00,88.0,59.2,30.10,WSW,248,8.5,10.1,38,0.00,,,0.00,WUHU216HW,2013-07-31 20:34:00,
2013-07-31 13:35:00,88.2,58.5,30.10,WNW,293,7.6,10.1,37,0.00,,,0.00,WUHU216HW,2013-07-31 20:35:00,
2013-07-31 13:39:00,88.4,57.9,30.10,West,270,6.5,10.1,36,0.00,,,0.00,WUHU216HW,2013-07-31 20:39:00,
2013-07-31 13:40:00,88.6,58.1,30.10,West,270,7.8,10.1,36,0.00,,,0.00,WUHU216HW,2013-07-31 20:40:00,
2013-07-31 13:43:00,88.9,60.8,30.10,SW,225,10.1,11.0,39,0.00,,,0.00,WUHU216HW,2013-07-31 20:43:00,
2013-07-31 13:45:00,88.9,60.8,30.10,West,270,9.8,11.0,39,0.00,,,0.00,WUHU216HW,2013-07-31 20:45:00,
2013-07-31 13:49:00,88.6,61.2,30.10,West,270,8.5,11.0,40,0.00,,,0.00,WUHU216HW,2013-07-31 20:49:00,
2013-07-31 13:50:00,88.4,61.1,30.10,West,270,9.8,11.0,40,0.00,,,0.00,WUHU216HW,2013-07-31 20:50:00,
2013-07-31 13:54:00,87.8,61.3,30.10,West,270,9.8,12.1,41,0.00,,,0.00,WUHU216HW,2013-07-31 20:54:00,
2013-07-31 13:55:00,87.8,60.7,30.10,West,270,11.0,12.1,40,0.00,,,0.00,WUHU216HW,2013-07-31 20:55:00,
2013-07-31 13:56:00,87.7,60.5,30.10,WSW,248,8.9,12.1,40,0.00,,,0.00,WUHU216HW,2013-07-31 20:56:00,
2013-07-31 13:59:00,87.3,60.9,30.10,WSW,248,8.1,12.1,41,0.00,,,0.00,WUHU216HW,2013-07-31 20:59:00,
2013-07-31 14:00:00,87.3,60.9,30.10,West,270,8.3,12.1,41,0.00,,,0.00,WUHU216HW,2013-07-31 21:00:00,
2013-07-31 14:01:00,87.3,60.9,30.10,WSW,248,5.4,11.4,41,0.00,,,0.00,WUHU216HW,2013-07-31 21:01:00,
2013-07-31 14:04:00,87.5,60.9,30.10,West,270,7.8,11.0,41,0.00,,,0.00,WUHU216HW,2013-07-31 21:04:00,
2013-07-31 14:05:00,87.5,60.9,30.10,WSW,248,8.7,11.4,41,0.00,,,0.00,WUHU216HW,2013-07-31 21:05:00,
2013-07-31 14:06:00,87.5,60.9,30.10,WSW,248,8.7,11.4,41,0.00,,,0.00,WUHU216HW,2013-07-31 21:06:00,
2013-07-31 14:09:00,87.5,61.6,30.10,West,270,11.4,11.4,42,0.00,,,0.00,WUHU216HW,2013-07-31 21:09:00,
2013-07-31 14:11:00,87.5,60.9,30.09,WSW,248,10.5,13.4,41,0.00,,,0.00,WUHU216HW,2013-07-31 21:11:00,
2013-07-31 14:12:00,87.3,61.5,30.09,West,270,6.9,13.4,42,0.00,,,0.00,WUHU216HW,2013-07-31 21:12:00,
2013-07-31 14:14:00,87.1,60.7,30.09,NW,315,9.2,13.4,41,0.00,,,0.00,WUHU216HW,2013-07-31 21:14:00,
2013-07-31 14:16:00,87.1,60.7,30.09,WSW,248,11.9,13.4,41,0.00,,,0.00,WUHU216HW,2013-07-31 21:16:00,
2013-07-31 14:17:00,87.1,60.7,30.09,NW,315,11.9,13.6,41,0.00,,,0.00,WUHU216HW,2013-07-31 21:17:00,
2013-07-31 14:19:00,87.3,60.9,30.09,WNW,293,7.4,13.6,41,0.00,,,0.00,WUHU216HW,2013-07-31 21:19:00,
2013-07-31 14:21:00,87.7,61.1,30.09,WSW,248,5.6,13.6,41,0.00,,,0.00,WUHU216HW,2013-07-31 21:21:00,
2013-07-31 14:22:00,87.7,61.1,30.09,WSW,248,8.7,13.6,41,0.00,,,0.00,WUHU216HW,2013-07-31 21:22:00,
2013-07-31 14:24:00,88.0,60.9,30.09,WSW,248,11.6,13.6,40,0.00,,,0.00,WUHU216HW,2013-07-31 21:24:00,
2013-07-31 14:26:00,88.2,60.9,30.09,West,270,8.5,13.6,40,0.00,,,0.00,WUHU216HW,2013-07-31 21:26:00,
2013-07-31 14:27:00,88.2,60.9,30.09,West,270,11.9,12.8,40,0.00,,,0.00,WUHU216HW,2013-07-31 21:27:00,
2013-07-31 14:28:00,88.2,60.9,30.08,West,270,8.9,12.8,40,0.00,,,0.00,WUHU216HW,2013-07-31 21:28:00,
2013-07-31 14:30:00,88.6,60.4,30.08,West,270,10.5,12.8,39,0.00,,,0.00,WUHU216HW,2013-07-31 21:30:00,
2013-07-31 14:31:00,88.6,60.4,30.08,West,270,7.6,12.8,39,0.00,,,0.00,WUHU216HW,2013-07-31 21:31:00,
2013-07-31 14:32:00,88.6,60.4,30.08,West,270,7.8,11.9,39,0.00,,,0.00,WUHU216HW,2013-07-31 21:32:00,
2013-07-31 14:33:00,88.7,60.6,30.08,West,270,4.0,11.9,39,0.00,,,0.00,WUHU216HW,2013-07-31 21:33:00,
2013-07-31 14:35:00,88.7,60.6,30.08,NW,315,5.8,11.9,39,0.00,,,0.00,WUHU216HW,2013-07-31 21:35:00,
2013-07-31 14:37:00,88.9,60.0,30.08,WNW,293,6.7,11.9,38,0.00,,,0.00,WUHU216HW,2013-07-31 21:37:00,
2013-07-31 14:38:00,88.9,60.8,30.08,West,270,6.0,10.5,39,0.00,,,0.00,WUHU216HW,2013-07-31 21:38:00,
2013-07-31 14:40:00,88.9,60.8,30.08,West,270,3.4,8.9,39,0.00,,,0.00,WUHU216HW,2013-07-31 21:40:00,
2013-07-31 14:42:00,88.9,58.3,30.07,WSW,248,6.3,8.7,36,0.00,,,0.00,WUHU216HW,2013-07-31 21:42:00,
2013-07-31 14:43:00,88.9,58.3,30.07,WSW,248,6.3,8.7,36,0.00,,,0.00,WUHU216HW,2013-07-31 21:43:00,
2013-07-31 14:45:00,88.7,58.1,30.07,NNW,338,2.9,8.7,36,0.00,,,0.00,WUHU216HW,2013-07-31 21:45:00,
2013-07-31 14:48:00,88.6,58.1,30.07,NNW,338,3.6,8.7,36,0.00,,,0.00,WUHU216HW,2013-07-31 21:48:00,
2013-07-31 14:51:00,88.4,59.5,30.07,NNW,338,3.6,7.4,38,0.00,,,0.00,WUHU216HW,2013-07-31 21:51:00,
2013-07-31 14:53:00,88.6,59.7,30.07,NNW,338,4.9,6.5,38,0.00,,,0.00,WUHU216HW,2013-07-31 21:53:00,
2013-07-31 14:54:00,88.6,58.1,30.07,NW,315,5.1,6.7,36,0.00,,,0.00,WUHU216HW,2013-07-31 21:54:00,
2013-07-31 14:56:00,88.7,59.8,30.07,West,270,4.7,6.7,38,0.00,,,0.00,WUHU216HW,2013-07-31 21:56:00,
2013-07-31 14:58:00,88.7,58.1,30.07,NW,315,2.9,6.7,36,0.00,,,0.00,WUHU216HW,2013-07-31 21:58:00,
2013-07-31 14:59:00,88.7,58.1,30.07,WNW,293,3.4,6.7,36,0.00,,,0.00,WUHU216HW,2013-07-31 21:59:00,
2013-07-31 15:02:00,88.9,58.3,30.07,NNW,338,2.7,6.7,36,0.00,,,0.00,WUHU216HW,2013-07-31 22:02:00,
2013-07-31 15:03:00,88.9,57.5,30.06,NNW,338,2.0,6.7,35,0.00,,,0.00,WUHU216HW,2013-07-31 22:03:00,
2013-07-31 15:04:00,88.9,58.3,30.06,North,0,4.5,6.3,36,0.00,,,0.00,WUHU216HW,2013-07-31 22:04:00,
2013-07-31 15:07:00,88.9,59.1,30.06,NNE,23,1.6,5.6,37,0.00,,,0.00,WUHU216HW,2013-07-31 22:07:00,
2013-07-31 15:08:00,88.9,58.3,30.06,North,0,1.8,5.4,36,0.00,,,0.00,WUHU216HW,2013-07-31 22:08:00,
2013-07-31 15:09:00,88.9,59.1,30.06,NNE,23,2.7,5.4,37,0.00,,,0.00,WUHU216HW,2013-07-31 22:09:00,
2013-07-31 15:13:00,89.1,58.5,30.06,West,270,0.9,5.8,36,0.00,,,0.00,WUHU216HW,2013-07-31 22:13:00,
2013-07-31 15:14:00,89.3,59.4,30.06,East,90,0.7,5.8,37,0.00,,,0.00,WUHU216HW,2013-07-31 22:14:00,
2013-07-31 15:18:00,89.6,59.0,30.06,North,0,3.4,5.8,36,0.00,,,0.00,WUHU216HW,2013-07-31 22:18:00,
2013-07-31 15:19:00,89.6,59.0,30.06,NNW,338,3.1,5.8,36,0.00,,,0.00,WUHU216HW,2013-07-31 22:19:00,
2013-07-31 15:20:00,89.6,59.0,30.06,North,0,2.7,5.8,36,0.00,,,0.00,WUHU216HW,2013-07-31 22:20:00,
2013-07-31 15:23:00,89.5,58.8,30.06,NNW,338,1.8,5.1,36,0.00,,,0.00,WUHU216HW,2013-07-31 22:23:00,
2013-07-31 15:24:00,89.5,58.8,30.06,NW,315,1.8,5.1,36,0.00,,,0.00,WUHU216HW,2013-07-31 22:24:00,
2013-07-31 15:25:00,89.5,58.8,30.06,NW,315,2.0,5.1,36,0.00,,,0.00,WUHU216HW,2013-07-31 22:25:00,
2013-07-31 15:28:00,89.3,58.6,30.06,NNW,338,2.0,3.4,36,0.00,,,0.00,WUHU216HW,2013-07-31 22:28:00,
2013-07-31 15:29:00,89.1,58.5,30.05,NNW,338,2.9,3.4,36,0.00,,,0.00,WUHU216HW,2013-07-31 22:29:00,
2013-07-31 15:30:00,89.1,58.5,30.05,WNW,293,1.8,4.9,36,0.00,,,0.00,WUHU216HW,2013-07-31 22:30:00,
2013-07-31 15:33:00,89.3,60.2,30.05,NNE,23,4.7,4.9,38,0.00,,,0.00,WUHU216HW,2013-07-31 22:33:00,
2013-07-31 15:34:00,89.3,58.6,30.05,NNW,338,3.4,4.9,36,0.00,,,0.00,WUHU216HW,2013-07-31 22:34:00,
2013-07-31 15:35:00,89.3,58.6,30.05,North,0,2.5,4.9,36,0.00,,,0.00,WUHU216HW,2013-07-31 22:35:00,
2013-07-31 15:36:00,89.5,59.6,30.05,NNW,338,3.8,4.9,37,0.00,,,0.00,WUHU216HW,2013-07-31 22:36:00,
2013-07-31 15:39:00,89.6,59.0,30.05,NNW,338,4.7,4.9,36,0.00,,,0.00,WUHU216HW,2013-07-31 22:39:00,
2013-07-31 15:40:00,89.5,58.0,30.05,NW,315,1.8,4.9,35,0.00,,,0.00,WUHU216HW,2013-07-31 22:40:00,
2013-07-31 15:41:00,89.5,58.8,30.05,NW,315,4.0,4.7,36,0.00,,,0.00,WUHU216HW,2013-07-31 22:41:00,
2013-07-31 15:42:00,89.5,58.0,30.05,NNW,338,2.9,4.7,35,0.00,,,0.00,WUHU216HW,2013-07-31 22:42:00,
2013-07-31 15:44:00,89.3,58.6,30.05,NNE,23,4.9,5.6,36,0.00,,,0.00,WUHU216HW,2013-07-31 22:44:00,
2013-07-31 15:45:00,89.3,60.2,30.05,NE,45,2.5,5.6,38,0.00,,,0.00,WUHU216HW,2013-07-31 22:45:00,
2013-07-31 15:46:00,89.3,60.2,30.05,NNE,23,1.8,5.6,38,0.00,,,0.00,WUHU216HW,2013-07-31 22:46:00,
2013-07-31 15:47:00,89.3,61.0,30.05,NNE,23,0.9,5.6,39,0.00,,,0.00,WUHU216HW,2013-07-31 22:47:00,
2013-07-31 15:48:00,89.5,61.2,30.05,North,0,3.4,5.6,39,0.00,,,0.00,WUHU216HW,2013-07-31 22:48:00,
2013-07-31 15:50:00,89.5,60.4,30.05,WNW,293,2.9,5.6,38,0.00,,,0.00,WUHU216HW,2013-07-31 22:50:00,
2013-07-31 15:51:00,89.5,60.4,30.05,NNW,338,3.8,5.6,38,0.00,,,0.00,WUHU216HW,2013-07-31 22:51:00,
2013-07-31 15:52:00,89.5,59.6,30.05,WSW,248,4.0,5.6,37,0.00,,,0.00,WUHU216HW,2013-07-31 22:52:00,
2013-07-31 15:54:00,89.3,60.2,30.05,NW,315,7.6,7.6,38,0.00,,,0.00,WUHU216HW,2013-07-31 22:54:00,
2013-07-31 15:55:00,89.3,60.2,30.05,West,270,4.5,7.6,38,0.00,,,0.00,WUHU216HW,2013-07-31 22:55:00,
2013-07-31 15:56:00,89.3,61.0,30.05,NNW,338,2.5,7.6,39,0.00,,,0.00,WUHU216HW,2013-07-31 22:56:00,
2013-07-31 15:57:00,89.3,60.2,30.05,NW,315,1.1,7.6,38,0.00,,,0.00,WUHU216HW,2013-07-31 22:57:00,
2013-07-31 15:59:00,89.5,59.6,30.05,NW,315,2.9,7.6,37,0.00,,,0.00,WUHU216HW,2013-07-31 22:59:00,
2013-07-31 16:00:00,89.5,58.8,30.05,NNW,338,2.9,7.6,36,0.00,,,0.00,WUHU216HW,2013-07-31 23:00:00,
2013-07-31 16:02:00,89.6,60.5,30.05,North,0,1.3,7.6,38,0.00,,,0.00,WUHU216HW,2013-07-31 23:02:00,
2013-07-31 16:03:00,89.6,61.3,30.05,SE,135,2.5,7.6,39,0.00,,,0.00,WUHU216HW,2013-07-31 23:03:00,
2013-07-31 16:04:00,89.6,61.3,30.05,SE,135,2.0,6.5,39,0.00,,,0.00,WUHU216HW,2013-07-31 23:04:00,
2013-07-31 16:05:00,90.0,62.5,30.05,SE,135,1.8,4.7,40,0.00,,,0.00,WUHU216HW,2013-07-31 23:05:00,
2013-07-31 16:07:00,90.4,61.9,30.05,SSE,158,6.3,6.3,39,0.00,,,0.00,WUHU216HW,2013-07-31 23:07:00,
2013-07-31 16:08:00,90.5,62.1,30.05,SE,135,0.0,6.3,39,0.00,,,0.00,WUHU216HW,2013-07-31 23:08:00,
2013-07-31 16:09:00,90.7,62.3,30.05,South,180,1.8,6.3,39,0.00,,,0.00,WUHU216HW,2013-07-31 23:09:00,
2013-07-31 16:10:00,90.9,61.7,30.05,WNW,293,1.1,6.3,38,0.00,,,0.00,WUHU216HW,2013-07-31 23:10:00,
2013-07-31 16:11:00,90.9,61.7,30.05,WNW,293,0.2,6.3,38,0.00,,,0.00,WUHU216HW,2013-07-31 23:11:00,
2013-07-31 16:12:00,91.1,61.8,30.05,WSW,248,1.3,6.3,38,0.00,,,0.00,WUHU216HW,2013-07-31 23:12:00,
2013-07-31 16:13:00,91.1,62.7,30.05,East,90,1.8,6.3,39,0.00,,,0.00,WUHU216HW,2013-07-31 23:13:00,
2013-07-31 16:14:00,91.3,62.0,30.05,SE,135,0.9,6.3,38,0.00,,,0.00,WUHU216HW,2013-07-31 23:14:00,
2013-07-31 16:15:00,91.1,61.8,30.05,East,90,3.6,6.3,38,0.00,,,0.00,WUHU216HW,2013-07-31 23:15:00,
2013-07-31 16:16:00,91.1,62.7,30.05,ENE,68,2.7,6.3,39,0.00,,,0.00,WUHU216HW,2013-07-31 23:16:00,
2013-07-31 16:17:00,91.3,62.7,30.05,ENE,68,4.5,4.7,39,0.00,,,0.00,WUHU216HW,2013-07-31 23:17:00,
2013-07-31 16:18:00,91.1,62.7,30.05,ENE,68,5.6,5.6,39,0.00,,,0.00,WUHU216HW,2013-07-31 23:18:00,
2013-07-31 16:19:00,91.1,62.7,30.04,ENE,68,3.4,5.6,39,0.00,,,0.00,WUHU216HW,2013-07-31 23:19:00,
2013-07-31 16:21:00,91.1,62.7,30.04,ENE,68,1.3,5.6,39,0.00,,,0.00,WUHU216HW,2013-07-31 23:21:00,
2013-07-31 16:22:00,91.1,62.7,30.04,ENE,68,2.5,5.6,39,0.00,,,0.00,WUHU216HW,2013-07-31 23:22:00,
2013-07-31 16:24:00,90.9,62.5,30.04,NNE,23,2.9,5.6,39,0.00,,,0.00,WUHU216HW,2013-07-31 23:24:00,
2013-07-31 16:25:00,90.9,62.5,30.04,ENE,68,2.0,5.6,39,0.00,,,0.00,WUHU216HW,2013-07-31 23:25:00,
2013-07-31 16:27:00,90.9,62.5,30.04,ESE,113,1.3,5.6,39,0.00,,,0.00,WUHU216HW,2013-07-31 23:27:00,
2013-07-31 16:28:00,90.9,62.5,30.04,SSE,158,1.6,5.6,39,0.00,,,0.00,WUHU216HW,2013-07-31 23:28:00,
2013-07-31 16:29:00,91.1,63.4,30.04,SSE,158,0.7,5.1,40,0.00,,,0.00,WUHU216HW,2013-07-31 23:29:00,
2013-07-31 16:30:00,91.1,63.4,30.04,SE,135,1.1,5.1,40,0.00,,,0.00,WUHU216HW,2013-07-31 23:30:00,
2013-07-31 16:32:00,91.4,62.9,30.04,SSE,158,2.0,5.1,39,0.00,,,0.00,WUHU216HW,2013-07-31 23:32:00,
2013-07-31 16:33:00,91.4,63.7,30.04,SSE,158,1.1,5.1,40,0.00,,,0.00,WUHU216HW,2013-07-31 23:33:00,
2013-07-31 16:34:00,91.6,63.1,30.04,ESE,113,3.4,5.1,39,0.00,,,0.00,WUHU216HW,2013-07-31 23:34:00,
2013-07-31 16:35:00,91.8,63.3,30.04,ESE,113,1.6,3.4,39,0.00,,,0.00,WUHU216HW,2013-07-31 23:35:00,
2013-07-31 16:37:00,92.2,63.5,30.04,ENE,68,1.8,3.4,39,0.00,,,0.00,WUHU216HW,2013-07-31 23:37:00,
2013-07-31 16:38:00,92.2,63.5,30.04,ESE,113,4.5,4.5,39,0.00,,,0.00,WUHU216HW,2013-07-31 23:38:00,
2013-07-31 16:40:00,92.5,63.9,30.04,ENE,68,2.5,4.5,39,0.00,,,0.00,WUHU216HW,2013-07-31 23:40:00,
2013-07-31 16:41:00,92.5,63.1,30.04,ENE,68,1.6,4.5,38,0.00,,,0.00,WUHU216HW,2013-07-31 23:41:00,
2013-07-31 16:42:00,92.5,63.1,30.04,South,180,1.8,4.5,38,0.00,,,0.00,WUHU216HW,2013-07-31 23:42:00,
2013-07-31 16:43:00,92.5,63.1,30.04,SSE,158,1.3,4.5,38,0.00,,,0.00,WUHU216HW,2013-07-31 23:43:00,
2013-07-31 16:45:00,92.5,63.1,30.04,SSE,158,0.2,4.5,38,0.00,,,0.00,WUHU216HW,2013-07-31 23:45:00,
2013-07-31 16:46:00,92.5,63.1,30.04,SSW,203,1.1,4.5,38,0.00,,,0.00,WUHU216HW,2013-07-31 23:46:00,
2013-07-31 16:47:00,92.3,62.9,30.04,SW,225,1.3,4.5,38,0.00,,,0.00,WUHU216HW,2013-07-31 23:47:00,
2013-07-31 16:48:00,92.3,62.9,30.04,SW,225,1.3,4.5,38,0.00,,,0.00,WUHU216HW,2013-07-31 23:48:00,
2013-07-31 16:52:00,92.0,62.7,30.04,SW,225,1.1,2.5,38,0.00,,,0.00,WUHU216HW,2013-07-31 23:52:00,
2013-07-31 16:53:00,91.8,62.5,30.04,SW,225,1.3,2.5,38,0.00,,,0.00,WUHU216HW,2013-07-31 23:53:00,
2013-07-31 16:57:00,91.6,62.3,30.04,SW,225,4.9,4.9,38,0.00,,,0.00,WUHU216HW,2013-07-31 23:57:00,
2013-07-31 16:58:00,91.4,62.1,30.04,SW,225,5.4,5.4,38,0.00,,,0.00,WUHU216HW,2013-07-31 23:58:00,
2013-07-31 17:02:00,91.1,61.8,30.04,WSW,248,2.5,5.4,38,0.00,,,0.00,WUHU216HW,2013-08-01 00:02:00,
2013-07-31 17:03:00,90.9,61.7,30.04,WSW,248,3.6,5.4,38,0.00,,,0.00,WUHU216HW,2013-08-01 00:03:00,
2013-07-31 17:04:00,90.7,61.5,30.04,WSW,248,2.5,5.4,38,0.00,,,0.00,WUHU216HW,2013-08-01 00:04:00,
2013-07-31 17:07:00,90.5,61.3,30.04,SW,225,2.2,5.4,38,0.00,,,0.00,WUHU216HW,2013-08-01 00:07:00,
2013-07-31 17:08:00,90.4,61.9,30.04,SW,225,2.5,5.4,39,0.00,,,0.00,WUHU216HW,2013-08-01 00:08:00,
2013-07-31 17:09:00,90.4,61.9,30.04,SW,225,2.0,5.1,39,0.00,,,0.00,WUHU216HW,2013-08-01 00:09:00,
2013-07-31 17:12:00,90.2,61.8,30.04,West,270,2.5,4.0,39,0.00,,,0.00,WUHU216HW,2013-08-01 00:12:00,
2013-07-31 17:13:00,90.0,61.7,30.04,West,270,0.2,4.0,39,0.00,,,0.00,WUHU216HW,2013-08-01 00:13:00,
2013-07-31 17:14:00,90.0,61.7,30.04,WSW,248,0.9,3.6,39,0.00,,,0.00,WUHU216HW,2013-08-01 00:14:00,
2013-07-31 17:17:00,89.8,61.5,30.04,SW,225,0.7,3.4,39,0.00,,,0.00,WUHU216HW,2013-08-01 00:17:00,
2013-07-31 17:18:00,89.8,61.5,30.04,SSW,203,0.9,3.4,39,0.00,,,0.00,WUHU216HW,2013-08-01 00:18:00,
2013-07-31 17:19:00,89.6,61.3,30.04,SSW,203,1.1,3.4,39,0.00,,,0.00,WUHU216HW,2013-08-01 00:19:00,
2013-07-31 17:22:00,89.6,61.3,30.04,NNE,23,0.2,2.5,39,0.00,,,0.00,WUHU216HW,2013-08-01 00:22:00,
2013-07-31 17:23:00,89.5,60.4,30.04,ESE,113,3.1,3.1,38,0.00,,,0.00,WUHU216HW,2013-08-01 00:23:00,
2013-07-31 17:24:00,89.5,60.4,30.04,ESE,113,3.1,3.1,38,0.00,,,0.00,WUHU216HW,2013-08-01 00:24:00,
2013-07-31 17:28:00,89.1,60.8,30.04,ENE,68,2.9,6.9,39,0.00,,,0.00,WUHU216HW,2013-08-01 00:28:00,
2013-07-31 17:29:00,88.9,60.8,30.04,NE,45,4.5,6.9,39,0.00,,,0.00,WUHU216HW,2013-08-01 00:29:00,
2013-07-31 17:30:00,88.7,60.6,30.04,ENE,68,2.0,6.9,39,0.00,,,0.00,WUHU216HW,2013-08-01 00:30:00,
2013-07-31 17:33:00,88.4,60.3,30.04,East,90,5.4,6.9,39,0.00,,,0.00,WUHU216HW,2013-08-01 00:33:00,
2013-07-31 17:34:00,88.2,60.1,30.04,East,90,5.4,6.9,39,0.00,,,0.00,WUHU216HW,2013-08-01 00:34:00,
2013-07-31 17:35:00,88.2,60.1,30.04,ESE,113,6.0,9.2,39,0.00,,,0.00,WUHU216HW,2013-08-01 00:35:00,
2013-07-31 17:38:00,87.5,60.3,30.04,ENE,68,11.4,13.2,40,0.00,,,0.00,WUHU216HW,2013-08-01 00:38:00,
2013-07-31 17:39:00,87.1,60.0,30.04,ENE,68,9.8,13.2,40,0.00,,,0.00,WUHU216HW,2013-08-01 00:39:00,
2013-07-31 17:40:00,87.1,60.0,30.05,ENE,68,14.3,14.3,40,0.00,,,0.00,WUHU216HW,2013-08-01 00:40:00,
2013-07-31 17:43:00,86.0,58.2,30.05,NE,45,9.6,14.3,39,0.00,,,0.00,WUHU216HW,2013-08-01 00:43:00,
2013-07-31 17:44:00,85.9,58.9,30.05,ENE,68,9.2,14.3,40,0.00,,,0.00,WUHU216HW,2013-08-01 00:44:00,
2013-07-31 17:45:00,85.7,58.0,30.05,NNE,23,6.5,14.3,39,0.00,,,0.00,WUHU216HW,2013-08-01 00:45:00,
2013-07-31 17:48:00,85.3,57.6,30.05,North,0,7.4,14.3,39,0.00,,,0.00,WUHU216HW,2013-08-01 00:48:00,
2013-07-31 17:49:00,85.1,57.4,30.05,NNE,23,4.7,14.3,39,0.00,,,0.00,WUHU216HW,2013-08-01 00:49:00,
2013-07-31 17:50:00,85.1,58.2,30.05,NE,45,4.0,14.3,40,0.00,,,0.00,WUHU216HW,2013-08-01 00:50:00,
2013-07-31 17:51:00,85.1,58.2,30.05,NE,45,8.5,11.4,40,0.00,,,0.00,WUHU216HW,2013-08-01 00:51:00,
2013-07-31 17:54:00,84.8,57.9,30.05,NE,45,3.8,11.2,40,0.00,,,0.00,WUHU216HW,2013-08-01 00:54:00,
2013-07-31 17:55:00,84.8,57.9,30.05,NNW,338,7.2,9.8,40,0.00,,,0.00,WUHU216HW,2013-08-01 00:55:00,
2013-07-31 17:56:00,84.6,57.8,30.05,North,0,4.5,9.8,40,0.00,,,0.00,WUHU216HW,2013-08-01 00:56:00,
2013-07-31 17:59:00,84.4,58.2,30.05,NNW,338,3.6,9.8,41,0.00,,,0.00,WUHU216HW,2013-08-01 00:59:00,
2013-07-31 18:00:00,84.2,58.7,30.05,NNW,338,4.0,9.8,42,0.00,,,0.00,WUHU216HW,2013-08-01 01:00:00,
2013-07-31 18:01:00,84.2,59.3,30.05,NNW,338,6.7,9.8,43,0.00,,,0.00,WUHU216HW,2013-08-01 01:01:00,
2013-07-31 18:03:00,83.9,60.2,30.05,North,0,7.2,9.6,45,0.00,,,0.00,WUHU216HW,2013-08-01 01:03:00,
2013-07-31 18:04:00,83.5,59.2,30.05,North,0,5.8,9.6,44,0.00,,,0.00,WUHU216HW,2013-08-01 01:04:00,
2013-07-31 18:05:00,83.3,59.8,30.05,NNW,338,6.3,9.6,45,0.00,,,0.00,WUHU216HW,2013-08-01 01:05:00,
2013-07-31 18:06:00,83.2,59.6,30.05,North,0,7.8,9.6,45,0.00,,,0.00,WUHU216HW,2013-08-01 01:06:00,
2013-07-31 18:08:00,82.8,59.9,30.05,ENE,68,3.4,8.5,46,0.00,,,0.00,WUHU216HW,2013-08-01 01:08:00,
2013-07-31 18:10:00,82.4,59.5,30.05,North,0,6.3,8.5,46,0.00,,,0.00,WUHU216HW,2013-08-01 01:10:00,
2013-07-31 18:11:00,82.1,59.1,30.05,NNE,23,4.7,8.3,46,0.00,,,0.00,WUHU216HW,2013-08-01 01:11:00,
2013-07-31 18:12:00,82.1,59.1,30.05,WNW,293,4.3,8.3,46,0.00,,,0.00,WUHU216HW,2013-08-01 01:12:00,
2013-07-31 18:13:00,81.7,58.9,30.06,West,270,7.2,8.3,46,0.00,,,0.00,WUHU216HW,2013-08-01 01:13:00,
2013-07-31 18:15:00,81.5,58.7,30.06,West,270,16.8,16.8,46,0.00,,,0.00,WUHU216HW,2013-08-01 01:15:00,
2013-07-31 18:16:00,81.4,55.4,30.06,WSW,248,12.3,16.8,41,0.00,,,0.00,WUHU216HW,2013-08-01 01:16:00,
2013-07-31 18:17:00,81.2,55.3,30.05,WSW,248,16.1,16.8,41,0.00,,,0.00,WUHU216HW,2013-08-01 01:17:00,
2013-07-31 18:18:00,81.2,55.9,30.06,West,270,17.9,19.0,42,0.00,,,0.00,WUHU216HW,2013-08-01 01:18:00,
2013-07-31 18:20:00,81.2,58.3,30.06,WSW,248,17.9,22.1,46,0.00,,,0.00,WUHU216HW,2013-08-01 01:20:00,
2013-07-31 18:21:00,80.6,57.9,30.06,SW,225,27.7,27.7,46,0.00,,,0.00,WUHU216HW,2013-08-01 01:21:00,
2013-07-31 18:22:00,80.3,58.1,30.06,West,270,31.3,31.3,47,0.00,,,0.00,WUHU216HW,2013-08-01 01:22:00,
2013-07-31 18:23:00,79.7,57.1,30.06,WSW,248,23.7,31.3,46,0.01,,,0.02,WUHU216HW,2013-08-01 01:23:00,
2013-07-31 18:25:00,77.9,58.4,30.06,West,270,17.2,31.3,51,0.04,,,0.05,WUHU216HW,2013-08-01 01:25:00,
2013-07-31 18:26:00,77.9,58.4,30.06,West,270,17.2,31.3,51,0.04,,,0.05,WUHU216HW,2013-08-01 01:26:00,
2013-07-31 18:27:00,77.9,58.4,30.06,West,270,17.2,31.3,51,0.04,,,0.05,WUHU216HW,2013-08-01 01:27:00,
2013-07-31 18:28:00,74.9,58.6,30.06,WNW,293,7.6,31.3,57,0.04,,,0.05,WUHU216HW,2013-08-01 01:28:00,
2013-07-31 18:30:00,74.2,58.4,30.06,NW,315,10.7,31.3,58,0.11,,,0.12,WUHU216HW,2013-08-01 01:30:00,
2013-07-31 18:34:00,73.6,58.9,30.09,SE,135,11.4,17.2,60,0.28,,,0.14,WUHU216HW,2013-08-01 01:34:00,
2013-07-31 18:35:00,73.6,58.9,30.09,SSE,158,14.8,17.2,60,0.30,,,0.30,WUHU216HW,2013-08-01 01:35:00,
2013-07-31 21:07:00,72.4,64.0,30.08,SSW,203,2.2,2.2,75,0.00,,,0.33,WUHU216HW,2013-08-01 04:07:00,
2013-07-31 21:08:00,72.4,64.4,30.08,SSW,203,1.3,2.2,76,0.00,,,0.45,WUHU216HW,2013-08-01 04:08:00,
2013-07-31 21:12:00,72.4,64.4,30.08,SSW,203,2.5,2.9,76,0.00,,,0.45,WUHU216HW,2013-08-01 04:12:00,
2013-07-31 21:13:00,72.4,64.4,30.08,SSW,203,2.2,2.9,76,0.00,,,0.45,WUHU216HW,2013-08-01 04:13:00,
2013-07-31 21:17:00,72.4,64.0,30.08,West,270,1.8,2.9,75,0.00,,,0.45,WUHU216HW,2013-08-01 04:17:00,
2013-07-31 21:18:00,72.4,64.0,30.08,West,270,2.7,2.9,75,0.00,,,0.45,WUHU216HW,2013-08-01 04:18:00,
2013-07-31 21:22:00,72.2,63.5,30.08,WSW,248,2.9,3.6,74,0.00,,,0.45,WUHU216HW,2013-08-01 04:22:00,
2013-07-31 21:23:00,72.0,63.3,30.07,West,270,3.1,3.6,74,0.00,,,0.45,WUHU216HW,2013-08-01 04:23:00,
2013-07-31 21:27:00,71.8,63.1,30.07,SW,225,1.3,4.0,74,0.00,,,0.45,WUHU216HW,2013-08-01 04:27:00,
2013-07-31 21:28:00,71.8,63.1,30.07,WSW,248,1.6,4.0,74,0.00,,,0.45,WUHU216HW,2013-08-01 04:28:00,
2013-07-31 21:32:00,71.8,63.1,30.07,WSW,248,3.1,4.0,74,0.00,,,0.45,WUHU216HW,2013-08-01 04:32:00,
2013-07-31 21:33:00,71.8,63.1,30.07,WSW,248,3.4,4.0,74,0.00,,,0.45,WUHU216HW,2013-08-01 04:33:00,
2013-07-31 21:37:00,71.6,62.9,30.07,WSW,248,4.0,5.8,74,0.00,,,0.45,WUHU216HW,2013-08-01 04:37:00,
2013-07-31 21:38:00,71.6,62.9,30.07,WSW,248,4.7,5.8,74,0.00,,,0.45,WUHU216HW,2013-08-01 04:38:00,
2013-07-31 21:43:00,71.6,62.9,30.07,WSW,248,3.4,5.8,74,0.00,,,0.45,WUHU216HW,2013-08-01 04:43:00,
2013-07-31 21:44:00,71.6,62.9,30.07,WSW,248,3.4,5.8,74,0.00,,,0.45,WUHU216HW,2013-08-01 04:44:00,
2013-07-31 21:48:00,71.6,62.9,30.08,West,270,2.5,4.7,74,0.00,,,0.45,WUHU216HW,2013-08-01 04:48:00,
2013-07-31 21:49:00,71.6,62.9,30.08,West,270,2.5,4.7,74,0.00,,,0.45,WUHU216HW,2013-08-01 04:49:00,
2013-07-31 21:53:00,71.5,62.7,30.07,West,270,2.7,3.4,74,0.00,,,0.45,WUHU216HW,2013-08-01 04:53:00,
2013-07-31 21:54:00,71.5,62.7,30.07,WSW,248,2.5,3.4,74,0.00,,,0.45,WUHU216HW,2013-08-01 04:54:00,
2013-07-31 21:58:00,71.5,62.7,30.07,WSW,248,1.3,3.4,74,0.00,,,0.45,WUHU216HW,2013-08-01 04:58:00,
2013-07-31 21:59:00,71.5,62.7,30.08,West,270,1.3,3.4,74,0.00,,,0.45,WUHU216HW,2013-08-01 04:59:00,
2013-07-31 22:03:00,71.5,62.7,30.08,WNW,293,0.9,2.9,74,0.00,,,0.45,WUHU216HW,2013-08-01 05:03:00,
2013-07-31 22:04:00,71.5,62.7,30.08,West,270,0.7,2.7,74,0.00,,,0.45,WUHU216HW,2013-08-01 05:04:00,
2013-07-31 22:08:00,71.3,62.6,30.08,WSW,248,2.2,2.5,74,0.00,,,0.45,WUHU216HW,2013-08-01 05:08:00,
2013-07-31 22:09:00,71.3,62.6,30.08,WSW,248,1.8,2.5,74,0.00,,,0.45,WUHU216HW,2013-08-01 05:09:00,
2013-07-31 22:10:00,71.3,62.6,30.08,SW,225,2.5,2.5,74,0.00,,,0.45,WUHU216HW,2013-08-01 05:10:00,
2013-07-31 22:13:00,71.3,62.6,30.08,WSW,248,2.2,3.4,74,0.00,,,0.45,WUHU216HW,2013-08-01 05:13:00,
2013-07-31 22:14:00,71.3,62.6,30.08,WSW,248,2.9,3.4,74,0.00,,,0.45,WUHU216HW,2013-08-01 05:14:00,
2013-07-31 22:15:00,71.3,62.6,30.08,WSW,248,1.6,3.4,74,0.00,,,0.45,WUHU216HW,2013-08-01 05:15:00,
2013-07-31 22:19:00,71.3,62.6,30.08,SW,225,0.0,3.4,74,0.00,,,0.45,WUHU216HW,2013-08-01 05:19:00,
2013-07-31 22:20:00,71.3,62.6,30.08,NNE,23,0.0,3.4,74,0.00,,,0.45,WUHU216HW,2013-08-01 05:20:00,
2013-07-31 22:24:00,71.3,62.6,30.08,NE,45,1.8,7.2,74,0.00,,,0.45,WUHU216HW,2013-08-01 05:24:00,
2013-07-31 22:25:00,71.3,62.6,30.07,ENE,68,4.9,7.2,74,0.00,,,0.45,WUHU216HW,2013-08-01 05:25:00,
2013-07-31 22:29:00,71.3,62.6,30.07,SE,135,1.6,7.2,74,0.00,,,0.45,WUHU216HW,2013-08-01 05:29:00,
2013-07-31 22:30:00,71.3,62.9,30.07,SE,135,2.0,7.2,75,0.00,,,0.45,WUHU216HW,2013-08-01 05:30:00,
2013-07-31 22:34:00,71.3,62.9,30.07,SE,135,2.0,5.4,75,0.00,,,0.45,WUHU216HW,2013-08-01 05:34:00,
2013-07-31 22:35:00,71.3,62.9,30.08,SE,135,2.7,4.7,75,0.00,,,0.45,WUHU216HW,2013-08-01 05:35:00,
2013-07-31 22:36:00,71.3,62.9,30.07,SE,135,2.5,3.4,75,0.00,,,0.45,WUHU216HW,2013-08-01 05:36:00,
2013-07-31 22:39:00,71.3,62.9,30.08,SSE,158,1.8,2.7,75,0.00,,,0.45,WUHU216HW,2013-08-01 05:39:00,
2013-07-31 22:40:00,71.3,62.9,30.08,South,180,2.0,2.7,75,0.00,,,0.45,WUHU216HW,2013-08-01 05:40:00,
2013-07-31 22:42:00,71.3,63.3,30.07,SSW,203,3.6,3.6,76,0.00,,,0.45,WUHU216HW,2013-08-01 05:42:00,
2013-07-31 22:44:00,71.1,63.1,30.07,SSW,203,3.6,4.5,76,0.00,,,0.45,WUHU216HW,2013-08-01 05:44:00,
2013-07-31 22:45:00,71.1,63.1,30.07,SSW,203,5.1,5.1,76,0.00,,,0.45,WUHU216HW,2013-08-01 05:45:00,
2013-07-31 22:47:00,70.9,62.9,30.07,SSW,203,4.7,5.1,76,0.00,,,0.45,WUHU216HW,2013-08-01 05:47:00,
2013-07-31 22:49:00,70.9,62.9,30.07,SSW,203,6.3,6.3,76,0.00,,,0.45,WUHU216HW,2013-08-01 05:49:00,
2013-07-31 22:50:00,70.9,63.3,30.07,SSW,203,4.5,6.3,77,0.00,,,0.45,WUHU216HW,2013-08-01 05:50:00,
2013-07-31 22:52:00,70.7,63.1,30.07,SW,225,4.0,6.3,77,0.00,,,0.45,WUHU216HW,2013-08-01 05:52:00,
2013-07-31 22:54:00,70.7,63.1,30.07,SSW,203,4.9,6.3,77,0.00,,,0.45,WUHU216HW,2013-08-01 05:54:00,
2013-07-31 22:55:00,70.7,63.1,30.07,SSW,203,5.1,6.3,77,0.00,,,0.45,WUHU216HW,2013-08-01 05:55:00,
2013-07-31 22:58:00,70.6,62.6,30.07,SSW,203,5.6,6.3,76,0.00,,,0.45,WUHU216HW,2013-08-01 05:58:00,
2013-07-31 22:59:00,70.6,62.6,30.08,SW,225,3.1,6.9,76,0.00,,,0.45,WUHU216HW,2013-08-01 05:59:00,
2013-07-31 23:00:00,70.6,62.6,30.08,SSW,203,6.9,6.9,76,0.00,,,0.45,WUHU216HW,2013-08-01 06:00:00,
2013-07-31 23:01:00,70.6,62.2,30.08,SSW,203,6.5,6.9,75,0.00,,,0.45,WUHU216HW,2013-08-01 06:01:00,
2013-07-31 23:03:00,70.6,62.2,30.08,SSW,203,4.5,6.9,75,0.00,,,0.45,WUHU216HW,2013-08-01 06:03:00,
2013-07-31 23:05:00,70.6,62.2,30.08,SSW,203,4.7,6.9,75,0.00,,,0.45,WUHU216HW,2013-08-01 06:05:00,
2013-07-31 23:06:00,70.6,61.8,30.08,SSW,203,4.9,6.9,74,0.00,,,0.45,WUHU216HW,2013-08-01 06:06:00,
2013-07-31 23:08:00,70.6,61.8,30.08,SSE,158,4.0,6.9,74,0.00,,,0.45,WUHU216HW,2013-08-01 06:08:00,
2013-07-31 23:10:00,70.6,61.8,30.07,South,180,4.5,6.9,74,0.00,,,0.45,WUHU216HW,2013-08-01 06:10:00,
2013-07-31 23:11:00,70.6,61.8,30.07,SSW,203,4.3,6.5,74,0.00,,,0.45,WUHU216HW,2013-08-01 06:11:00,
2013-07-31 23:12:00,70.6,61.8,30.07,SSW,203,4.0,5.4,74,0.00,,,0.45,WUHU216HW,2013-08-01 06:12:00,
2013-07-31 23:13:00,70.6,61.8,30.07,South,180,4.0,5.4,74,0.00,,,0.45,WUHU216HW,2013-08-01 06:13:00,
2013-07-31 23:15:00,70.6,61.8,30.07,SSW,203,4.7,5.4,74,0.00,,,0.45,WUHU216HW,2013-08-01 06:15:00,
2013-07-31 23:16:00,70.6,61.8,30.07,SSW,203,3.4,5.4,74,0.00,,,0.45,WUHU216HW,2013-08-01 06:16:00,
2013-07-31 23:17:00,70.6,61.5,30.07,SSW,203,5.4,5.4,73,0.00,,,0.45,WUHU216HW,2013-08-01 06:17:00,
2013-07-31 23:18:00,70.6,61.5,30.07,SSW,203,4.7,5.4,73,0.00,,,0.45,WUHU216HW,2013-08-01 06:18:00,
2013-07-31 23:20:00,70.6,61.5,30.07,SW,225,4.0,5.4,73,0.00,,,0.45,WUHU216HW,2013-08-01 06:20:00,
2013-07-31 23:22:00,70.6,61.5,30.07,South,180,3.6,5.4,73,0.00,,,0.45,WUHU216HW,2013-08-01 06:22:00,
2013-07-31 23:23:00,70.6,61.5,30.07,SSW,203,4.7,5.4,73,0.00,,,0.45,WUHU216HW,2013-08-01 06:23:00,
2013-07-31 23:25:00,70.6,61.5,30.07,SSW,203,4.5,5.4,73,0.00,,,0.45,WUHU216HW,2013-08-01 06:25:00,
2013-07-31 23:26:00,70.6,61.0,30.07,SSW,203,5.1,5.4,72,0.00,,,0.45,WUHU216HW,2013-08-01 06:26:00,
2013-07-31 23:28:00,70.6,61.0,30.07,SSW,203,4.5,5.4,72,0.00,,,0.45,WUHU216HW,2013-08-01 06:28:00,
2013-07-31 23:30:00,70.6,61.0,30.07,South,180,3.4,5.4,72,0.00,,,0.45,WUHU216HW,2013-08-01 06:30:00,
2013-07-31 23:31:00,70.6,61.0,30.07,South,180,3.6,5.4,72,0.00,,,0.45,WUHU216HW,2013-08-01 06:31:00,
2013-07-31 23:33:00,70.6,61.0,30.07,SSW,203,3.8,5.1,72,0.00,,,0.45,WUHU216HW,2013-08-01 06:33:00,
2013-07-31 23:34:00,70.6,60.7,30.07,SSW,203,2.7,5.1,71,0.00,,,0.45,WUHU216HW,2013-08-01 06:34:00,
2013-07-31 23:35:00,70.6,61.0,30.07,SSW,203,2.7,5.1,72,0.00,,,0.45,WUHU216HW,2013-08-01 06:35:00,
2013-07-31 23:37:00,70.6,61.0,30.07,SW,225,2.5,5.1,72,0.00,,,0.45,WUHU216HW,2013-08-01 06:37:00,
2013-07-31 23:38:00,70.6,61.0,30.07,SW,225,2.7,4.5,72,0.00,,,0.45,WUHU216HW,2013-08-01 06:38:00,
2013-07-31 23:39:00,70.6,61.0,30.07,SSW,203,2.5,4.5,72,0.00,,,0.45,WUHU216HW,2013-08-01 06:39:00,
2013-07-31 23:40:00,70.6,61.5,30.07,SW,225,2.0,4.3,73,0.00,,,0.45,WUHU216HW,2013-08-01 06:40:00,
2013-07-31 23:42:00,70.6,61.5,30.07,SW,225,1.8,3.8,73,0.00,,,0.45,WUHU216HW,2013-08-01 06:42:00,
2013-07-31 23:43:00,70.7,61.7,30.07,SW,225,1.8,3.6,73,0.00,,,0.45,WUHU216HW,2013-08-01 06:43:00,
2013-07-31 23:44:00,70.6,61.5,30.07,SW,225,1.8,3.4,73,0.00,,,0.45,WUHU216HW,2013-08-01 06:44:00,
2013-07-31 23:45:00,70.6,61.5,30.07,SW,225,1.3,3.4,73,0.00,,,0.45,WUHU216HW,2013-08-01 06:45:00,
2013-07-31 23:47:00,70.6,61.5,30.07,SSW,203,4.7,4.7,73,0.00,,,0.45,WUHU216HW,2013-08-01 06:47:00,
2013-07-31 23:48:00,70.6,61.5,30.07,WSW,248,4.7,4.7,73,0.00,,,0.45,WUHU216HW,2013-08-01 06:48:00,
2013-07-31 23:49:00,70.6,61.5,30.07,WSW,248,4.7,4.7,73,0.00,,,0.45,WUHU216HW,2013-08-01 06:49:00,
2013-07-31 23:51:00,70.6,61.5,30.07,SW,225,3.4,4.7,73,0.00,,,0.45,WUHU216HW,2013-08-01 06:51:00,
2013-07-31 23:52:00,70.6,61.5,30.07,WSW,248,2.7,4.7,73,0.00,,,0.45,WUHU216HW,2013-08-01 06:52:00,
2013-07-31 23:54:00,70.6,61.5,30.07,SW,225,4.0,4.7,73,0.00,,,0.45,WUHU216HW,2013-08-01 06:54:00,
2013-07-31 23:55:00,70.7,61.7,30.07,SW,225,2.9,4.7,73,0.00,,,0.45,WUHU216HW,2013-08-01 06:55:00,
2013-07-31 23:56:00,70.7,61.7,30.07,WSW,248,2.7,4.7,73,0.00,,,0.45,WUHU216HW,2013-08-01 06:56:00,
2013-07-31 23:57:00,70.7,61.7,30.07,WSW,248,3.8,4.7,73,0.00,,,0.45,WUHU216HW,2013-08-01 06:57:00,
2013-07-31 23:59:00,70.7,61.7,30.07,WSW,248,3.4,4.7,73,0.00,,,0.45,WUHU216HW,2013-08-01 06:59:00,